CW1648 Weather Reports


time (UTC)temp
F
wind
direction
speed
knots
gust
knots
rain 1hr
in
rain 24hr
in
rain mn
in
humidity
%
barometer
mb
20260508095018 40 305 0.0 0.0 0.00 0.00 0.00 87 1010.6
20260508094833 40 305 0.0 0.0 0.00 0.00 0.00 87 1010.4
20260508094722 40 305 0.0 0.0 0.00 0.00 0.00 87 1010.5
20260508094632 40 305 0.0 0.0 0.00 0.00 0.00 87 1010.4
20260508094531 41 305 0.0 0.0 0.00 0.00 0.00 87 1010.5
20260508094518 41 305 0.0 0.0 0.00 0.00 0.00 87 1010.6
20260508094431 41 305 0.0 0.0 0.00 0.00 0.00 87 1010.4
20260508094345 41 305 0.0 0.0 0.00 0.00 0.00 87 1010.5
20260508094340 41 305 0.0 0.0 0.00 0.00 0.00 87 1010.4
20260508094221 41 305 0.0 0.0 0.00 0.00 0.00 87 1010.5
20260508094131 41 305 0.0 0.0 0.00 0.00 0.00 86 1010.4
20260508094030 41 305 0.0 0.0 0.00 0.00 0.00 86 1010.5
20260508094019 41 305 0.0 0.0 0.00 0.00 0.00 86 1010.7
20260508093941 41 305 0.0 0.0 0.00 0.00 0.00 86 1010.5
20260508093929 41 305 0.0 0.0 0.00 0.00 0.00 86 1010.5
20260508093837 41 305 0.0 0.0 0.00 0.00 0.00 86 1010.5
20260508093828 41 305 0.0 0.0 0.00 0.00 0.00 86 1010.5
20260508093628 41 305 0.0 0.0 0.00 0.00 0.00 86 1010.6
20260508093610 41 305 0.0 0.0 0.00 0.00 0.00 86 1010.5
20260508093602 41 305 0.0 0.0 0.00 0.00 0.00 86 1010.6
20260508093557 41 305 0.0 0.0 0.00 0.00 0.00 86 1010.6
20260508093547 41 305 0.0 0.0 0.00 0.00 0.00 86 1010.6
20260508093518 41 305 0.0 0.0 0.00 0.00 0.00 86 1010.7
20260508093125 41 305 0.0 0.0 0.00 0.00 0.00 86 1010.6
20260508093047 42 305 0.0 0.0 0.00 0.00 0.00 86 1010.6
20260508093018 42 305 0.0 0.0 0.00 0.00 0.00 86 1010.7
20260508092924 42 305 0.0 0.0 0.00 0.00 0.00 86 1010.6
20260508092835 42 305 0.0 0.0 0.00 0.00 0.00 85 1010.6
20260508092826 42 305 0.0 0.0 0.00 0.00 0.00 85 1010.6
20260508092622 42 305 0.0 0.0 0.00 0.00 0.00 85 1010.6
20260508092535 42 0 0.0 0.0 0.00 0.00 0.00 85 1010.6
20260508092531 42 302 0.0 0.0 0.00 0.00 0.00 85 1010.6
20260508092518 42 360 0.0 0.0 0.00 0.00 0.00 85 1010.7
20260508092321 42 0 0.0 0.0 0.00 0.00 0.00 85 1010.6
20260508092221 42 0 0.0 0.0 0.00 0.00 0.00 85 1010.5
20260508092120 42 0 0.0 0.0 0.00 0.00 0.00 85 1010.5
20260508092019 42 0 0.0 0.0 0.00 0.00 0.00 84 1010.6
20260508091920 42 0 0.0 0.0 0.00 0.00 0.00 85 1010.6
20260508091819 42 0 0.0 0.0 0.00 0.00 0.00 85 1010.6
20260508091720 42 0 0.0 0.0 0.00 0.00 0.00 85 1010.5
20260508091619 42 0 0.0 0.0 0.00 0.00 0.00 84 1010.5
20260508091520 42 0 0.0 0.0 0.00 0.00 0.00 85 1010.5
20260508091518 43 360 0.0 0.0 0.00 0.00 0.00 85 1010.7
20260508091419 43 0 0.0 0.0 0.00 0.00 0.00 85 1010.5
20260508091319 43 0 0.0 0.0 0.00 0.00 0.00 84 1010.6
20260508091219 43 0 0.0 0.0 0.00 0.00 0.00 84 1010.5
20260508091118 43 0 0.0 0.0 0.00 0.00 0.00 84 1010.5
20260508091018 43 360 0.0 0.0 0.00 0.00 0.00 84 1010.7
20260508090917 43 0 0.0 0.0 0.00 0.00 0.00 84 1010.5
20260508090817 43 0 0.0 0.0 0.00 0.00 0.00 84 1010.5
20260508090740 43 0 0.0 0.0 0.00 0.00 0.00 84 1010.5
20260508090625 43 0 0.0 0.0 0.00 0.00 0.00 84 1010.5
20260508090518 43 360 0.0 0.0 0.00 0.00 0.00 83 1010.7
20260508090427 43 0 0.0 0.0 0.00 0.00 0.00 83 1010.5
20260508090423 43 0 0.0 0.0 0.00 0.00 0.00 83 1010.5
20260508090214 43 0 0.0 0.0 0.00 0.00 0.00 83 1010.5
20260508090147 43 0 0.0 0.0 0.00 0.00 0.00 83 1010.4
20260508090141 43 0 0.0 0.0 0.00 0.00 0.00 83 1010.4
20260508090028 43 0 0.0 0.0 0.00 0.00 0.00 83 1010.4
20260508090018 43 360 0.0 0.0 0.00 0.00 0.00 83 1010.6
20260508085709 44 0 0.0 0.0 0.00 0.00 0.00 83 1010.4
20260508085609 44 0 0.0 0.0 0.00 0.00 0.00 82 1010.4
20260508085518 44 360 0.0 0.0 0.00 0.00 0.00 82 1010.5
20260508085507 44 0 0.0 0.0 0.00 0.00 0.00 82 1010.3
20260508085407 44 0 0.0 0.0 0.00 0.00 0.00 82 1010.4
20260508085308 44 0 0.0 0.0 0.00 0.00 0.00 82 1010.4
20260508085212 44 0 0.0 0.0 0.00 0.00 0.00 82 1010.4
20260508085207 44 0 0.0 0.0 0.00 0.00 0.00 82 1010.3
20260508085119 44 0 0.0 0.0 0.00 0.00 0.00 82 1010.4
20260508085115 44 0 0.0 0.0 0.00 0.00 0.00 82 1010.4
20260508085033 44 360 0.0 0.0 0.00 0.00 0.00 82 1010.6
20260508084904 44 0 0.0 0.0 0.00 0.00 0.00 81 1010.3
20260508084805 44 0 0.0 0.0 0.00 0.00 0.00 81 1010.4
20260508084746 44 0 0.0 0.0 0.00 0.00 0.00 81 1010.3
20260508084741 44 0 0.0 0.0 0.00 0.00 0.00 81 1010.4
20260508084735 44 0 0.0 0.0 0.00 0.00 0.00 81 1010.3
20260508084622 44 0 0.0 0.0 0.00 0.00 0.00 81 1010.3
20260508084518 44 360 0.0 0.0 0.00 0.00 0.00 81 1010.5
20260508084303 45 0 0.0 0.0 0.00 0.00 0.00 80 1010.3
20260508084212 45 0 0.0 0.0 0.00 0.00 0.00 80 1010.3
20260508084202 45 0 0.0 0.0 0.00 0.00 0.00 80 1010.3
20260508084102 45 0 0.0 0.0 0.00 0.00 0.00 80 1010.2
20260508084018 45 360 0.0 0.0 0.00 0.00 0.00 80 1010.4
20260508084001 45 0 0.0 0.0 0.00 0.00 0.00 79 1010.2
20260508083901 45 0 0.0 0.0 0.00 0.00 0.00 79 1010.2
20260508083800 45 0 0.0 0.0 0.00 0.00 0.00 79 1010.2
20260508083711 45 0 0.0 0.0 0.00 0.00 0.00 79 1010.1
20260508083658 45 0 0.0 0.0 0.00 0.00 0.00 79 1010.1
20260508083558 45 0 0.0 0.0 0.00 0.00 0.00 79 1010.2
20260508083518 45 360 0.0 0.0 0.00 0.00 0.00 79 1010.3
20260508083458 45 0 0.0 0.0 0.00 0.00 0.00 79 1010.1
20260508083357 45 0 0.0 0.0 0.00 0.00 0.00 79 1010.1
20260508083257 45 0 0.0 0.0 0.00 0.00 0.00 78 1010.2
20260508083211 45 0 0.0 0.0 0.00 0.00 0.00 78 1010.2
20260508083157 45 0 0.0 0.0 0.00 0.00 0.00 78 1010.1
20260508083056 45 0 0.0 0.0 0.00 0.00 0.00 78 1010.1
20260508083020 45 360 0.0 0.0 0.00 0.00 0.00 78 1010.3
20260508082956 46 0 0.0 0.0 0.00 0.00 0.00 78 1010.1
20260508082933 46 0 0.0 0.0 0.00 0.00 0.00 78 1010.0
20260508082855 46 0 0.0 0.0 0.00 0.00 0.00 78 1010.0
20260508082818 46 0 0.0 0.0 0.00 0.00 0.00 78 1010.0
20260508082653 46 0 0.0 0.0 0.00 0.00 0.00 78 1010.0
20260508082605 46 0 0.0 0.0 0.00 0.00 0.00 78 1010.0
20260508082601 46 0 0.0 0.0 0.00 0.00 0.00 78 1010.0
20260508082518 46 360 0.0 0.0 0.00 0.00 0.00 78 1010.2
20260508082351 46 0 0.0 0.0 0.00 0.00 0.00 77 1009.9
20260508082324 46 0 0.0 0.0 0.00 0.00 0.00 77 1009.9
20260508082320 46 0 0.0 0.0 0.00 0.00 0.00 77 1009.9
20260508082306 46 0 0.0 0.0 0.00 0.00 0.00 77 1009.9
20260508082018 46 360 0.0 0.0 0.00 0.00 0.00 77 1010.1
20260508082012 46 0 0.0 0.0 0.00 0.00 0.00 77 1009.9
20260508081859 46 0 0.0 0.0 0.00 0.00 0.00 77 1009.8
20260508081708 46 0 0.0 0.0 0.00 0.00 0.00 77 1009.8
20260508081648 46 0 0.0 0.0 0.00 0.00 0.00 77 1009.8
20260508081547 46 0 0.0 0.0 0.00 0.00 0.00 77 1009.8
20260508081518 46 360 0.0 0.0 0.00 0.00 0.00 77 1010.0
20260508081502 46 0 0.0 0.0 0.00 0.00 0.00 77 1009.8
20260508081458 46 0 0.0 0.0 0.00 0.00 0.00 77 1009.8
20260508081247 46 0 0.0 0.0 0.00 0.00 0.00 77 1009.8
20260508081209 46 0 0.0 0.0 0.00 0.00 0.00 77 1009.7
20260508081147 46 0 0.0 0.0 0.00 0.00 0.00 77 1009.7
20260508081046 47 0 0.0 0.0 0.00 0.00 0.00 77 1009.8
20260508081018 47 360 0.0 0.0 0.00 0.00 0.00 77 1009.9
20260508080946 47 0 0.0 0.0 0.00 0.00 0.00 77 1009.8
20260508080846 47 0 0.0 0.0 0.00 0.00 0.00 76 1009.8
20260508080745 47 0 0.0 0.0 0.00 0.00 0.00 76 1009.8
20260508080707 47 0 0.0 0.0 0.00 0.00 0.00 76 1009.8
20260508080645 47 0 0.0 0.0 0.00 0.00 0.00 76 1009.8
20260508080558 47 0 0.0 0.0 0.00 0.00 0.00 76 1009.7
20260508080554 47 0 0.0 0.0 0.00 0.00 0.00 76 1009.7
20260508080518 47 360 0.0 0.0 0.00 0.00 0.00 76 1009.8
20260508080357 47 0 0.0 0.0 0.00 0.00 0.00 76 1009.7
20260508080353 47 0 0.0 0.0 0.00 0.00 0.00 76 1009.7
20260508080208 47 0 0.0 0.0 0.00 0.00 0.00 75 1009.7
20260508080144 47 0 0.0 0.0 0.00 0.00 0.00 75 1009.7
20260508080100 47 0 0.0 0.0 0.00 0.00 0.00 75 1009.7
20260508080051 47 0 0.0 0.0 0.00 0.00 0.00 75 1009.7
20260508080018 47 360 0.0 0.0 0.00 0.00 0.00 75 1009.8
20260508075841 47 0 0.0 0.0 0.00 0.00 0.00 75 1009.6
20260508075741 48 0 0.0 0.0 0.00 0.00 0.00 74 1009.6
20260508075707 48 0 0.0 0.0 0.00 0.00 0.00 74 1009.6
20260508075640 48 0 0.0 0.0 0.00 0.00 0.00 74 1009.6
20260508075540 48 0 0.0 0.0 0.00 0.00 0.00 74 1009.6
20260508075518 48 360 0.0 0.0 0.00 0.00 0.00 74 1009.7
20260508075452 48 0 0.0 0.0 0.00 0.00 0.00 73 1009.6
20260508075448 48 0 0.0 0.0 0.00 0.00 0.00 74 1009.6
20260508075238 48 0 0.0 0.0 0.00 0.00 0.00 73 1009.5
20260508075205 48 0 0.0 0.0 0.00 0.00 0.00 73 1009.6
20260508075150 48 0 0.0 0.0 0.00 0.00 0.00 73 1009.5
20260508075146 48 0 0.0 0.0 0.00 0.00 0.00 73 1009.6
20260508075019 48 360 0.0 0.0 0.00 0.00 0.00 73 1009.6
20260508074936 48 0 0.0 0.0 0.00 0.00 0.00 73 1009.5
20260508074836 48 0 0.0 0.0 0.00 0.00 0.00 73 1009.5
20260508074735 48 0 0.0 0.0 0.00 0.00 0.00 72 1009.5
20260508074704 48 0 0.0 0.0 0.00 0.00 0.00 72 1009.5
20260508074635 48 0 0.0 0.0 0.00 0.00 0.00 72 1009.5
20260508074548 49 0 0.0 0.0 0.00 0.00 0.00 72 1009.5
20260508074544 49 0 0.0 0.0 0.00 0.00 0.00 72 1009.5
20260508074518 49 360 0.0 0.0 0.00 0.00 0.00 72 1009.6
20260508074334 49 0 0.0 0.0 0.00 0.00 0.00 72 1009.4
20260508074234 49 0 0.0 0.0 0.00 0.00 0.00 72 1009.4
20260508074204 49 0 0.0 0.0 0.00 0.00 0.00 72 1009.4
20260508074146 49 0 0.0 0.0 0.00 0.00 0.00 72 1009.4
20260508074142 49 0 0.0 0.0 0.00 0.00 0.00 72 1009.4
20260508074018 49 360 0.0 0.0 0.00 0.00 0.00 72 1009.5
20260508073933 49 0 0.0 0.0 0.00 0.00 0.00 72 1009.4
20260508073833 49 0 0.0 0.0 0.00 0.00 0.00 71 1009.4
20260508073704 49 0 0.0 0.0 0.00 0.00 0.00 71 1009.4
20260508073632 49 0 0.0 0.0 0.00 0.00 0.00 71 1009.4
20260508073544 49 0 0.0 0.0 0.00 0.00 0.00 71 1009.4
20260508073540 49 0 0.0 0.0 0.00 0.00 0.00 71 1009.4
20260508073520 49 360 0.0 0.0 0.00 0.00 0.00 71 1009.5
20260508073330 49 0 0.0 0.0 0.00 0.00 0.00 71 1009.4
20260508073203 49 0 0.0 0.0 0.00 0.00 0.00 71 1009.3
20260508073130 49 0 0.0 0.0 0.00 0.00 0.00 70 1009.3
20260508073029 49 0 0.0 0.0 0.00 0.00 0.00 70 1009.3
20260508073018 49 360 0.0 0.0 0.00 0.00 0.00 70 1009.4
20260508072928 49 0 0.0 0.0 0.00 0.00 0.00 70 1009.3
20260508072827 49 0 0.0 0.0 0.00 0.00 0.00 70 1009.2
20260508072703 49 0 0.0 0.0 0.00 0.00 0.00 70 1009.2
20260508072626 49 0 0.0 0.0 0.00 0.00 0.00 70 1009.2
20260508072527 49 0 0.0 0.0 0.00 0.00 0.00 70 1009.2
20260508072519 50 360 0.0 0.0 0.00 0.01 0.00 70 1009.3
20260508072426 50 0 0.0 0.0 0.00 0.00 0.00 70 1009.2
20260508072326 50 0 0.0 0.0 0.00 0.00 0.00 70 1009.2
20260508072225 50 0 0.0 2.6 0.00 0.00 0.00 70 1009.2
20260508072201 50 0 0.0 2.6 0.00 0.00 0.00 69 1009.2
20260508072125 50 0 0.0 2.6 0.00 0.00 0.00 69 1009.2
20260508072024 50 0 0.0 2.6 0.00 0.00 0.00 69 1009.2
20260508072019 50 360 0.0 2.6 0.00 0.02 0.00 69 1009.3
20260508071946 50 0 0.0 2.6 0.00 0.00 0.00 69 1009.2
20260508071832 50 0 0.0 2.6 0.00 0.00 0.00 69 1009.2
20260508071700 50 0 0.0 2.6 0.00 0.00 0.00 69 1009.2
20260508071623 50 0 0.0 2.6 0.00 0.00 0.00 69 1009.2
20260508071523 50 0 0.0 7.8 0.00 0.00 0.00 69 1009.1
20260508071519 50 360 0.0 7.8 0.00 0.03 0.00 69 1009.2
20260508071422 50 0 0.0 7.8 0.00 0.00 0.00 69 1009.1
20260508071322 50 0 0.0 7.8 0.00 0.00 0.00 69 1009.0
20260508071236 50 0 0.0 7.8 0.00 0.00 0.00 69 1009.0
20260508071228 50 0 0.0 7.8 0.00 0.00 0.00 69 1009.0
20260508071021 50 0 0.0 7.8 0.00 0.00 0.00 70 1009.0
20260508071018 50 360 0.0 7.8 0.00 0.05 0.00 70 1009.1
20260508070920 50 0 0.0 7.8 0.00 0.00 0.00 69 1009.0
20260508070831 50 0 0.0 7.8 0.00 0.00 0.00 69 1008.9
20260508070826 50 0 0.0 7.8 0.00 0.00 0.00 69 1009.0
20260508070659 50 0 0.0 7.8 0.00 0.00 0.00 69 1009.0
20260508070618 50 0 0.0 7.8 0.00 0.00 0.00 69 1009.0
20260508070518 50 0 0.0 4.3 0.00 0.00 0.00 69 1008.9
20260508070430 50 0 0.0 5.2 0.00 0.00 0.00 69 1009.0
20260508070425 50 0 0.0 5.2 0.00 0.00 0.00 69 1009.0
20260508070216 50 0 0.0 5.2 0.00 0.00 0.00 69 1009.0
20260508070158 50 0 0.0 5.2 0.00 0.00 0.00 69 1008.9
20260508070116 50 0 0.0 5.2 0.00 0.00 0.00 69 1008.9
20260508070110 50 0 0.0 5.2 0.00 0.00 0.00 70 1008.9
20260508070105 50 0 0.0 5.2 0.00 0.00 0.00 70 1008.9
20260508070059 50 0 0.0 5.2 0.00 0.00 0.00 69 1008.9
20260508070018 50 360 0.0 5.2 0.00 0.05 0.00 69 1009.0
20260508065945 50 0 0.0 5.2 0.00 0.00 0.00 70 1008.9
20260508065719 50 0 0.0 5.2 0.00 0.00 0.00 70 1008.9
20260508065518 50 360 0.0 5.2 0.00 0.06 0.00 70 1008.9
20260508065511 50 0 0.0 5.2 0.00 0.00 0.00 70 1008.8
20260508065411 50 0 0.0 0.0 0.00 0.00 0.00 70 1008.8
20260508065310 50 0 0.0 0.0 0.00 0.00 0.00 71 1008.8
20260508065210 50 0 0.0 0.0 0.00 0.00 0.00 70 1008.8
20260508065156 50 0 0.0 0.0 0.00 0.00 0.00 70 1008.8
20260508065110 50 0 0.0 0.0 0.00 0.00 0.00 71 1008.9
20260508065019 50 360 0.0 0.0 0.00 0.07 0.00 71 1008.9
20260508065008 50 0 0.0 0.0 0.00 0.00 0.00 71 1008.8
20260508064908 50 0 0.0 0.0 0.00 0.00 0.00 71 1008.8
20260508064807 50 0 0.0 0.0 0.00 0.00 0.00 71 1008.8
20260508064707 50 0 0.0 0.0 0.00 0.00 0.00 71 1008.8
20260508064653 50 0 0.0 0.0 0.00 0.00 0.00 71 1008.8
20260508064607 49 0 0.0 0.0 0.00 0.00 0.00 71 1008.7
20260508064518 49 360 0.0 0.0 0.00 0.08 0.00 72 1008.8
20260508064507 49 0 0.0 0.0 0.00 0.00 0.00 72 1008.7
20260508064407 49 0 0.0 0.9 0.00 0.00 0.00 72 1008.7
20260508064306 49 0 0.0 0.9 0.00 0.00 0.00 72 1008.7
20260508064206 49 0 0.0 0.9 0.00 0.00 0.00 73 1008.6
20260508064151 49 0 0.0 0.9 0.00 0.00 0.00 73 1008.6
20260508064106 49 0 0.0 0.9 0.00 0.00 0.00 73 1008.6
20260508064018 49 360 0.0 0.9 0.00 0.08 0.00 73 1008.6
20260508064005 49 0 0.0 0.9 0.00 0.00 0.00 73 1008.5
20260508063905 49 0 0.0 0.9 0.00 0.00 0.00 74 1008.6
20260508063805 49 0 0.0 0.9 0.00 0.00 0.00 75 1008.5
20260508063746 49 0 0.0 0.9 0.00 0.00 0.00 75 1008.5
20260508063742 48 0 0.0 0.9 0.00 0.00 0.00 75 1008.6
20260508063737 49 0 0.0 0.9 0.00 0.00 0.00 74 1008.6
20260508063728 49 0 0.0 0.9 0.00 0.00 0.00 74 1008.6
20260508063518 49 360 0.0 0.9 0.00 0.08 0.00 75 1008.6
20260508063303 48 0 0.0 0.9 0.00 0.00 0.00 75 1008.5
20260508063230 48 0 0.0 0.0 0.00 0.00 0.00 76 1008.5
20260508063222 48 0 0.0 0.0 0.00 0.00 0.00 77 1008.5
20260508063110 48 0 0.0 0.0 0.00 0.00 0.00 77 1008.5
20260508063019 48 360 0.0 0.0 0.00 0.08 0.00 77 1008.6
20260508062901 48 0 0.0 0.0 0.00 0.00 0.00 78 1008.5
20260508062801 48 0 0.0 0.0 0.00 0.00 0.00 78 1008.5
20260508062719 48 0 0.0 0.0 0.00 0.00 0.00 79 1008.4
20260508062707 48 0 0.0 0.0 0.00 0.00 0.00 79 1008.4
20260508062518 48 360 0.0 0.0 0.00 0.09 0.00 78 1008.5
20260508062459 48 0 0.0 0.0 0.00 0.00 0.00 79 1008.4
20260508062417 48 0 0.0 0.0 0.00 0.00 0.00 79 1008.5
20260508062412 48 0 0.0 0.0 0.00 0.00 0.00 79 1008.4
20260508062403 48 0 0.0 0.0 0.00 0.00 0.00 79 1008.4
20260508062057 48 0 0.0 0.0 0.00 0.00 0.00 79 1008.4
20260508062019 48 360 0.0 0.0 0.00 0.09 0.00 79 1008.5
20260508062016 48 0 0.0 0.0 0.00 0.00 0.00 79 1008.4
20260508061856 48 0 0.0 0.0 0.00 0.00 0.00 79 1008.4
20260508061802 48 0 0.0 0.0 0.00 0.00 0.00 79 1008.4
20260508061753 48 0 0.0 0.0 0.00 0.00 0.00 79 1008.3
20260508061556 48 0 0.0 0.0 0.00 0.00 0.00 79 1008.4
20260508061518 48 360 0.0 0.0 0.00 0.09 0.00 79 1008.5
20260508061456 48 0 0.0 0.0 0.00 0.00 0.00 79 1008.4
20260508061408 48 0 0.0 0.0 0.00 0.00 0.00 80 1008.3
20260508061404 48 0 0.0 0.0 0.00 0.00 0.00 80 1008.3
20260508061143 48 0 0.0 0.0 0.00 0.00 0.00 80 1008.2
20260508061107 48 0 0.0 0.0 0.00 0.00 0.00 80 1008.2
20260508061103 48 0 0.0 0.0 0.00 0.00 0.00 80 1008.2
20260508061018 48 360 0.0 0.0 0.00 0.09 0.00 80 1008.3
20260508060906 48 0 0.0 0.0 0.00 0.00 0.00 80 1008.3
20260508060902 48 0 0.0 0.0 0.00 0.00 0.00 80 1008.3
20260508060643 48 0 0.0 2.6 0.00 0.00 0.00 80 1008.3
20260508060551 48 0 0.0 2.6 0.00 0.00 0.00 80 1008.3
20260508060518 48 360 0.0 2.6 0.00 0.11 0.00 81 1008.4
20260508060451 48 0 0.0 2.6 0.00 0.00 0.00 81 1008.3
20260508060350 48 0 0.0 2.6 0.00 0.00 0.00 81 1008.3
20260508060250 48 0 0.0 2.6 0.00 0.00 0.00 81 1008.2
20260508060142 48 0 0.0 2.6 0.00 0.00 0.00 81 1008.2
20260508060050 48 0 0.0 2.6 0.00 0.00 0.00 81 1008.2
20260508060019 48 360 0.0 2.6 0.00 0.12 0.00 81 1008.4
20260508055947 48 0 0.0 2.6 0.00 0.00 0.00 81 1008.3
20260508055908 48 0 0.0 0.0 0.00 0.00 0.00 81 1008.0
20260508055847 48 0 0.0 2.6 0.00 0.00 0.00 82 1008.4
20260508055758 48 0 0.0 2.6 0.00 0.00 0.00 82 1008.2
20260508055748 48 0 0.0 0.0 0.00 0.00 0.00 81 1008.0
20260508055543 48 0 0.0 0.0 0.00 0.00 0.00 81 1007.8
20260508055518 48 360 0.0 0.0 0.00 0.14 0.00 81 1007.8
20260508055444 48 0 0.0 0.0 0.00 0.00 0.00 81 1007.7
20260508055415 48 0 0.0 0.0 0.00 0.00 0.00 81 1007.6
20260508055410 48 0 0.0 0.0 0.00 0.00 0.00 80 1007.5
20260508055405 48 0 0.0 0.0 0.00 0.00 0.00 81 1007.7
20260508055143 48 0 0.0 0.0 0.00 0.00 0.00 80 1007.5
20260508055048 48 360 0.0 0.0 0.00 0.15 0.00 80 1007.6
20260508055042 48 0 0.0 0.0 0.00 0.00 0.00 80 1007.5
20260508054942 48 0 0.0 0.0 0.00 0.00 0.00 81 1007.5
20260508054842 48 0 0.0 0.0 0.00 0.00 0.00 81 1007.5
20260508054741 48 0 0.0 0.0 0.00 0.00 0.00 81 1007.6
20260508054641 48 0 0.0 0.0 0.00 0.00 0.00 81 1007.5
20260508054540 48 0 0.0 0.0 0.00 0.00 0.00 81 1007.4
20260508054518 48 360 0.0 0.0 0.00 0.15 0.00 81 1007.6
20260508054439 48 0 0.0 0.0 0.00 0.00 0.00 81 1007.5
20260508054339 48 0 0.0 0.0 0.00 0.00 0.00 80 1007.5
20260508054238 48 0 0.0 2.6 0.00 0.00 0.00 80 1007.5
20260508054139 48 0 0.0 2.6 0.00 0.00 0.00 81 1007.5
20260508054037 48 0 0.0 2.6 0.00 0.00 0.00 81 1007.5
20260508054018 48 360 0.0 2.6 0.00 0.16 0.00 81 1007.6
20260508053938 48 0 0.0 2.6 0.00 0.00 0.00 82 1007.5
20260508053837 48 0 0.0 2.6 0.00 0.00 0.00 82 1007.5
20260508053751 48 0 0.0 2.6 0.00 0.00 0.00 82 1007.5
20260508053742 48 0 0.0 2.6 0.00 0.00 0.00 82 1007.5
20260508053536 48 0 0.0 2.6 0.00 0.00 0.00 83 1007.4
20260508053518 48 360 0.0 2.6 0.00 0.20 0.00 82 1007.5
20260508053448 48 0 0.0 2.6 0.00 0.00 0.00 82 1007.4
20260508053444 48 0 0.0 2.6 0.00 0.00 0.00 82 1007.4
20260508053235 49 0 0.0 0.0 0.00 0.00 0.00 82 1007.5
20260508053134 49 0 0.0 0.0 0.00 0.00 0.00 82 1007.4
20260508053033 49 0 0.0 0.0 0.00 0.00 0.00 81 1007.4
20260508053019 49 360 0.0 0.0 0.00 0.21 0.00 81 1007.5
20260508052932 49 0 0.0 0.0 0.00 0.00 0.00 81 1007.4
20260508052832 49 0 0.0 0.0 0.00 0.00 0.00 81 1007.4
20260508052732 49 0 0.0 0.0 0.00 0.00 0.00 81 1007.3
20260508052630 49 0 0.0 0.0 0.00 0.00 0.00 81 1007.4
20260508052529 49 0 0.0 0.0 0.00 0.00 0.00 81 1007.4
20260508052518 49 360 0.0 0.0 0.00 0.21 0.00 81 1007.5
20260508052427 49 0 0.0 0.0 0.00 0.00 0.00 81 1007.4
20260508052327 49 0 0.0 0.0 0.00 0.00 0.00 81 1007.4
20260508052226 49 0 0.0 0.0 0.00 0.00 0.00 81 1007.4
20260508052126 49 0 0.0 0.0 0.00 0.00 0.00 81 1007.4
20260508052025 49 0 0.0 0.0 0.00 0.00 0.00 81 1007.4
20260508052019 49 360 0.0 0.0 0.00 0.23 0.00 81 1007.5
20260508051925 49 0 0.0 0.0 0.00 0.00 0.00 81 1007.4
20260508051824 49 0 0.0 0.0 0.00 0.00 0.00 81 1007.4
20260508051723 49 0 0.0 0.0 0.00 0.00 0.00 81 1007.4
20260508051623 49 0 0.0 0.0 0.00 0.00 0.00 81 1007.4
20260508051548 50 360 0.0 0.0 0.00 0.24 0.00 80 1007.5
20260508051522 49 0 0.0 0.0 0.00 0.00 0.00 80 1007.4
20260508051422 49 0 0.0 0.0 0.00 0.00 0.00 80 1007.4
20260508051322 49 0 0.0 0.0 0.00 0.00 0.00 80 1007.5
20260508051221 49 0 0.0 0.0 0.00 0.00 0.00 80 1007.4
20260508051121 49 0 0.0 0.0 0.00 0.00 0.00 80 1007.4
20260508051020 49 0 0.0 0.0 0.00 0.00 0.00 80 1007.4
20260508051018 50 360 0.0 0.0 0.00 0.26 0.00 80 1007.5
20260508050920 50 0 0.0 0.0 0.00 0.00 0.00 80 1007.4
20260508050833 50 0 0.0 0.0 0.00 0.00 0.00 80 1007.3
20260508050828 50 0 0.0 0.0 0.00 0.00 0.00 80 1007.3
20260508050638 50 0 0.0 0.0 0.00 0.00 0.00 81 1007.2
20260508050628 50 0 0.0 0.0 0.00 0.00 0.00 80 1007.3
20260508050519 50 360 0.0 0.0 0.00 0.26 0.00 81 1007.4
20260508050418 50 0 0.0 0.0 0.00 0.00 0.00 81 1007.3
20260508050340 50 0 0.0 0.0 0.00 0.00 0.00 81 1007.2
20260508050335 50 0 0.0 0.0 0.00 0.00 0.00 81 1007.2
20260508050118 50 0 0.0 0.0 0.00 0.00 0.00 81 1007.2
20260508050019 50 0 0.0 0.0 0.00 0.00 0.00 81 1007.2
20260508045918 50 0 0.0 0.0 0.00 0.00 0.00 81 1007.1
20260508045816 50 0 0.0 0.0 0.00 0.00 0.00 81 1007.1
20260508045716 50 0 0.0 0.0 0.00 0.00 0.00 81 1007.1
20260508045617 50 0 0.0 0.0 0.00 0.00 0.00 81 1007.1
20260508045603 50 360 0.0 0.0 0.00 0.27 0.00 81 1007.2
20260508045516 50 0 0.0 0.0 0.00 0.00 0.00 81 1007.1
20260508045416 50 0 0.0 0.0 0.00 0.00 0.00 81 1007.1
20260508045315 49 0 0.0 0.0 0.00 0.00 0.00 81 1007.1
20260508045214 49 0 0.0 0.0 0.00 0.00 0.00 81 1007.1
20260508045125 49 0 0.0 0.0 0.00 0.00 0.00 82 1007.1
20260508045121 49 0 0.0 0.0 0.00 0.00 0.00 81 1007.1
20260508045018 50 360 0.0 0.0 0.00 0.27 0.00 82 1007.2
20260508044927 49 0 0.0 0.0 0.00 0.00 0.00 82 1007.1
20260508044921 49 0 0.0 0.0 0.00 0.00 0.00 82 1007.1
20260508044711 49 0 0.0 0.0 0.00 0.00 0.00 82 1007.0
20260508044626 49 0 0.0 0.0 0.00 0.00 0.00 82 1007.0
20260508044611 49 0 0.0 0.0 0.00 0.00 0.00 82 1006.9
20260508044524 49 0 0.0 0.0 0.00 0.00 0.00 82 1006.9
20260508044520 49 360 0.0 0.0 0.00 0.27 0.00 82 1007.0
20260508044310 49 0 0.0 0.0 0.00 0.00 0.00 82 1007.0
20260508044209 49 0 0.0 0.0 0.00 0.00 0.00 82 1007.0
20260508044126 49 0 0.0 0.0 0.00 0.00 0.00 83 1007.0
20260508044108 49 0 0.0 0.0 0.00 0.00 0.00 83 1006.9
20260508044019 49 360 0.0 0.0 0.00 0.27 0.00 83 1007.0
20260508044008 49 0 0.0 0.0 0.00 0.00 0.00 83 1006.9
20260508043907 49 0 0.0 0.0 0.00 0.00 0.00 84 1006.9
20260508043807 49 0 0.0 0.0 0.00 0.00 0.00 84 1006.9
20260508043707 49 0 0.0 0.0 0.00 0.00 0.00 84 1006.9
20260508043626 49 0 0.0 0.0 0.00 0.00 0.00 84 1006.9
20260508043615 49 0 0.0 0.0 0.00 0.00 0.00 84 1006.8
20260508043611 49 0 0.0 0.0 0.00 0.00 0.00 84 1006.8
20260508043601 49 0 0.0 0.0 0.00 0.00 0.00 84 1006.8
20260508043518 49 360 0.0 0.0 0.00 0.27 0.00 84 1006.9
20260508043448 49 0 0.0 0.0 0.00 0.00 0.00 84 1006.8
20260508043335 49 0 0.0 0.0 0.00 0.00 0.00 84 1006.8
20260508043325 49 0 0.0 0.0 0.00 0.00 0.00 84 1006.8
20260508043019 49 360 0.0 0.0 0.00 0.27 0.00 85 1006.9
20260508042900 49 0 0.0 0.0 0.00 0.00 0.00 84 1006.8
20260508042758 49 0 0.0 0.0 0.00 0.00 0.00 84 1006.8
20260508042658 49 0 0.0 0.0 0.00 0.00 0.00 84 1006.7
20260508042627 49 0 0.0 0.0 0.00 0.00 0.00 84 1006.7
20260508042557 49 0 0.0 0.0 0.00 0.00 0.00 84 1006.7
20260508042518 49 360 0.0 0.0 0.00 0.27 0.00 84 1006.8
20260508042457 49 0 0.0 0.0 0.00 0.00 0.00 84 1006.7
20260508042355 49 0 0.0 0.0 0.00 0.00 0.00 84 1006.7
20260508042308 49 0 0.0 0.0 0.00 0.00 0.00 84 1006.7
20260508042306 49 0 0.0 0.0 0.00 0.00 0.00 84 1006.7
20260508042125 49 0 0.0 0.0 0.00 0.00 0.00 84 1006.7
20260508042054 49 0 0.0 0.0 0.00 0.00 0.00 84 1006.7
20260508042019 49 360 0.0 0.0 0.00 0.27 0.00 84 1006.8
20260508041953 49 0 0.0 0.0 0.00 0.00 0.00 84 1006.7
20260508041908 49 0 0.0 0.0 0.00 0.00 0.00 84 1006.7
20260508041903 49 0 0.0 0.0 0.00 0.00 0.00 84 1006.7
20260508041625 49 0 0.0 0.0 0.00 0.00 0.00 84 1006.7
20260508041553 49 0 0.0 0.0 0.00 0.00 0.00 84 1006.7
20260508041519 49 360 0.0 0.0 0.00 0.27 0.00 84 1006.8
20260508041452 49 0 0.0 0.0 0.00 0.00 0.00 84 1006.7
20260508041351 49 0 0.0 0.0 0.00 0.00 0.00 84 1006.7
20260508041318 49 0 0.0 0.0 0.00 0.00 0.00 84 1006.7
20260508041157 49 0 0.0 0.0 0.00 0.00 0.00 84 1006.7
20260508041019 49 360 0.0 0.0 0.00 0.27 0.00 84 1006.8
20260508040949 49 0 0.0 0.0 0.00 0.00 0.00 84 1006.7
20260508040847 49 0 0.0 0.0 0.00 0.00 0.00 84 1006.7
20260508040748 49 0 0.0 0.0 0.00 0.00 0.00 84 1006.7
20260508040626 49 0 0.0 0.0 0.00 0.00 0.00 84 1006.7
20260508040601 49 0 0.0 0.0 0.00 0.00 0.00 84 1006.7
20260508040556 49 0 0.0 0.0 0.00 0.00 0.00 84 1006.7
20260508040519 49 360 0.0 0.0 0.00 0.27 0.00 84 1006.8
20260508040345 49 0 0.0 0.0 0.00 0.00 0.00 84 1006.7
20260508040244 49 0 0.0 0.0 0.00 0.00 0.00 84 1006.7
20260508040123 49 0 0.0 0.0 0.00 0.00 0.00 84 1006.7
20260508040043 49 0 0.0 0.0 0.00 0.00 0.00 84 1006.6
20260508040019 49 360 0.0 0.0 0.00 0.27 0.00 84 1006.7
20260508035942 49 0 0.0 0.0 0.00 0.00 0.27 84 1006.6
20260508035841 49 0 0.0 0.0 0.00 0.00 0.27 84 1006.6
20260508035740 49 0 0.0 0.0 0.00 0.00 0.27 84 1006.7
20260508035621 49 0 0.0 0.0 0.00 0.00 0.27 84 1006.7
20260508035607 49 0 0.0 0.0 0.00 0.00 0.27 84 1006.7
20260508035603 49 0 0.0 0.0 0.00 0.00 0.27 84 1006.7
20260508035559 49 0 0.0 0.0 0.00 0.00 0.27 84 1006.7
20260508035555 49 0 0.0 0.0 0.00 0.00 0.27 84 1006.7
20260508035550 49 0 0.0 0.0 0.00 0.00 0.27 84 1006.7
20260508035540 49 0 0.0 0.0 0.00 0.00 0.27 84 1006.7
20260508035519 49 360 0.0 0.0 0.00 0.27 0.27 84 1006.8
20260508035206 49 0 0.0 0.0 0.00 0.00 0.27 84 1006.7
20260508035054 49 0 0.0 0.0 0.00 0.00 0.27 84 1006.8
20260508035019 49 360 0.0 0.0 0.00 0.27 0.27 84 1006.8
20260508034735 49 0 0.0 0.0 0.00 0.00 0.27 84 1006.7
20260508034619 49 0 0.0 0.0 0.00 0.00 0.27 84 1006.7
20260508034548 49 360 0.0 0.0 0.00 0.27 0.27 84 1006.8
20260508034535 49 0 0.0 0.0 0.00 0.00 0.27 84 1006.7
20260508034434 49 0 0.0 0.0 0.00 0.00 0.27 84 1006.7
20260508034334 49 0 0.0 0.0 0.00 0.00 0.27 84 1006.7
20260508034233 49 0 0.0 0.0 0.00 0.00 0.27 84 1006.7
20260508034117 49 0 0.0 0.0 0.00 0.00 0.27 84 1006.7
20260508034047 49 0 0.0 0.0 0.00 0.00 0.27 84 1006.7
20260508034041 49 0 0.0 0.0 0.00 0.00 0.27 84 1006.7
20260508034019 49 360 0.0 0.0 0.00 0.27 0.27 84 1006.8
20260508033846 48 0 0.0 0.0 0.00 0.00 0.27 84 1006.7
20260508033841 49 0 0.0 0.0 0.00 0.00 0.27 84 1006.8
20260508033832 49 0 0.0 0.0 0.00 0.00 0.27 84 1006.7
20260508033530 48 0 0.0 0.0 0.00 0.00 0.27 84 1006.7
20260508033519 48 360 0.0 0.0 0.00 0.27 0.27 84 1006.9
20260508033430 48 0 0.0 0.0 0.00 0.00 0.27 84 1006.8
20260508033344 48 0 0.0 0.0 0.00 0.00 0.27 83 1006.7
20260508033338 48 0 0.0 0.0 0.00 0.00 0.27 84 1006.7
20260508033116 48 0 0.0 0.0 0.00 0.00 0.27 83 1006.6
20260508033029 48 0 0.0 0.0 0.00 0.00 0.27 83 1006.6
20260508033018 48 360 0.0 0.0 0.00 0.27 0.27 83 1006.7
20260508032946 48 0 0.0 0.0 0.00 0.00 0.27 83 1006.6
20260508032942 48 0 0.0 0.0 0.00 0.00 0.27 83 1006.5
20260508032937 48 0 0.0 0.0 0.00 0.00 0.27 83 1006.6
20260508032729 48 0 0.0 0.0 0.00 0.00 0.27 83 1006.6
20260508032720 48 0 0.0 0.0 0.00 0.00 0.27 83 1006.6
20260508032525 48 0 0.0 0.0 0.00 0.00 0.27 83 1006.5
20260508032518 48 360 0.0 0.0 0.00 0.27 0.27 83 1006.6
20260508032425 48 0 0.0 0.0 0.00 0.00 0.27 83 1006.5
20260508032340 48 0 0.0 0.0 0.00 0.00 0.27 83 1006.6
20260508032335 48 0 0.0 0.0 0.00 0.00 0.27 83 1006.6
20260508032124 48 0 0.0 0.0 0.00 0.00 0.27 82 1006.6
20260508032112 48 0 0.0 0.0 0.00 0.00 0.27 82 1006.5
20260508032024 48 0 0.0 0.0 0.00 0.00 0.27 82 1006.5
20260508032019 48 360 0.0 0.0 0.00 0.27 0.27 82 1006.6
20260508031924 48 0 0.0 0.0 0.00 0.00 0.27 82 1006.5
20260508031824 48 0 0.0 0.0 0.00 0.00 0.27 82 1006.5
20260508031723 48 0 0.0 0.0 0.00 0.00 0.27 82 1006.6
20260508031622 48 0 0.0 0.0 0.00 0.00 0.27 82 1006.5
20260508031612 48 0 0.0 0.0 0.00 0.00 0.27 81 1006.6
20260508031522 48 0 0.0 0.0 0.00 0.00 0.27 81 1006.6
20260508031519 48 360 0.0 0.0 0.00 0.27 0.27 81 1006.7
20260508031421 48 0 0.0 0.0 0.00 0.00 0.27 81 1006.6
20260508031320 48 0 0.0 0.0 0.00 0.00 0.27 81 1006.5
20260508031218 48 0 0.0 0.0 0.00 0.00 0.27 81 1006.6
20260508031119 48 0 0.0 0.0 0.00 0.00 0.27 81 1006.6
20260508031112 48 0 0.0 0.0 0.00 0.00 0.27 81 1006.5
20260508031048 48 360 0.0 0.0 0.00 0.27 0.27 81 1006.7
20260508031030 48 0 0.0 0.0 0.00 0.00 0.27 81 1006.6
20260508031025 48 0 0.0 0.0 0.00 0.00 0.27 81 1006.5
20260508030815 48 0 0.0 0.0 0.00 0.00 0.27 81 1006.5
20260508030715 48 0 0.0 0.0 0.00 0.00 0.27 81 1006.6
20260508030612 48 0 0.0 0.0 0.00 0.00 0.27 81 1006.6
20260508030529 48 0 0.0 0.0 0.00 0.00 0.27 82 1006.5
20260508030524 48 0 0.0 0.0 0.00 0.00 0.27 81 1006.5
20260508030519 48 360 0.0 0.0 0.00 0.27 0.27 81 1006.6
20260508030314 48 0 0.0 0.0 0.00 0.00 0.27 82 1006.5
20260508030214 48 0 0.0 0.0 0.00 0.00 0.27 82 1006.6
20260508030115 48 0 0.0 0.0 0.00 0.00 0.27 82 1006.5
20260508030019 48 360 0.0 0.0 0.00 0.27 0.27 82 1006.6
20260508030013 48 0 0.0 0.0 0.00 0.00 0.27 82 1006.5
20260508025911 48 0 0.0 0.0 0.00 0.00 0.27 82 1006.6
20260508025811 48 0 0.0 0.0 0.00 0.00 0.27 82 1006.5
20260508025711 48 0 0.0 0.0 0.00 0.00 0.27 82 1006.5
20260508025632 48 0 0.0 0.0 0.00 0.00 0.27 82 1006.5
20260508025549 48 360 0.0 0.0 0.00 0.27 0.27 82 1006.7
20260508025518 48 0 0.0 0.0 0.00 0.00 0.27 82 1006.6
20260508025323 49 0 0.0 0.0 0.00 0.00 0.27 82 1006.6
20260508025318 48 0 0.0 0.0 0.00 0.00 0.27 82 1006.6
20260508025108 49 0 0.0 0.0 0.00 0.00 0.27 82 1006.6
20260508025021 49 0 0.0 0.0 0.00 0.00 0.27 82 1006.6
20260508025019 49 360 0.0 0.0 0.00 0.27 0.27 82 1006.6
20260508025016 49 0 0.0 0.0 0.00 0.00 0.27 82 1006.5
20260508024822 49 0 0.0 0.0 0.00 0.00 0.27 80 1006.6
20260508024816 49 0 0.0 0.0 0.00 0.00 0.27 81 1006.6
20260508024606 49 0 0.0 0.0 0.00 0.00 0.27 80 1006.6
20260508024519 49 360 0.0 0.0 0.00 0.27 0.27 80 1006.7
20260508024505 49 0 0.0 0.0 0.00 0.00 0.27 80 1006.6
20260508024405 49 0 0.0 0.0 0.00 0.00 0.27 80 1006.5
20260508024304 49 0 0.0 0.0 0.00 0.00 0.27 80 1006.6
20260508024205 49 0 0.0 0.0 0.00 0.00 0.27 80 1006.6
20260508024105 49 0 0.0 0.0 0.00 0.00 0.27 80 1006.5
20260508024018 49 0 0.0 0.0 0.00 0.00 0.27 80 1006.6
20260508024013 49 0 0.0 0.0 0.00 0.00 0.27 80 1006.6
20260508023840 49 0 0.0 0.0 0.00 0.00 0.27 80 1006.6
20260508023836 49 0 0.0 0.0 0.00 0.00 0.27 80 1006.5
20260508023829 49 0 0.0 0.0 0.00 0.00 0.27 80 1006.6
20260508023603 49 0 0.0 0.0 0.00 0.00 0.27 80 1006.6
20260508023520 49 360 0.0 0.0 0.00 0.28 0.27 80 1006.7
20260508023502 49 0 0.0 0.0 0.00 0.00 0.27 80 1006.6
20260508023446 49 0 0.0 0.0 0.00 0.00 0.27 79 1006.5
20260508023439 49 0 0.0 0.0 0.00 0.00 0.27 80 1006.5
20260508023326 49 0 0.0 0.0 0.00 0.00 0.27 79 1006.5
20260508023209 49 0 0.0 0.0 0.00 0.00 0.27 79 1006.5
20260508023018 49 360 0.0 0.0 0.00 0.28 0.27 79 1006.6
20260508023001 49 0 0.0 0.0 0.00 0.00 0.27 79 1006.5
20260508022913 49 0 0.0 0.0 0.00 0.00 0.27 79 1006.5
20260508022908 49 0 0.0 0.0 0.00 0.00 0.27 79 1006.5
20260508022658 49 0 0.0 0.0 0.00 0.00 0.27 79 1006.5
20260508022612 49 0 0.0 0.0 0.00 0.00 0.27 79 1006.5
20260508022558 49 0 0.0 0.0 0.00 0.00 0.27 79 1006.5
20260508022534 49 360 0.0 0.0 0.00 0.28 0.27 79 1006.6
20260508022457 49 0 0.0 0.0 0.00 0.00 0.27 79 1006.5
20260508022357 49 0 0.0 0.0 0.00 0.00 0.27 79 1006.5
20260508022331 49 0 0.0 0.0 0.00 0.00 0.27 78 1006.5
20260508022326 49 0 0.0 0.0 0.00 0.00 0.27 78 1006.5
20260508022320 49 0 0.0 0.0 0.00 0.00 0.27 78 1006.5
20260508022204 49 0 0.0 0.0 0.00 0.00 0.27 78 1006.5
20260508022018 49 360 0.0 0.0 0.00 0.28 0.27 78 1006.7
20260508021958 49 0 0.0 0.0 0.00 0.00 0.27 78 1006.6
20260508021857 49 0 0.0 0.0 0.00 0.00 0.27 77 1006.5
20260508021757 49 0 0.0 0.0 0.00 0.00 0.27 77 1006.6
20260508021657 49 0 0.0 0.0 0.00 0.00 0.27 77 1006.5
20260508021609 49 0 0.0 0.0 0.00 0.00 0.27 77 1006.6
20260508021556 49 0 0.0 0.0 0.00 0.00 0.27 77 1006.6
20260508021519 49 360 0.0 0.0 0.00 0.28 0.27 77 1006.6
20260508021456 49 0 0.0 0.0 0.00 0.00 0.27 77 1006.5
20260508021355 49 0 0.0 0.0 0.00 0.00 0.27 76 1006.6
20260508021254 49 0 0.0 0.0 0.00 0.00 0.27 77 1006.5
20260508021154 49 0 0.0 0.0 0.00 0.00 0.27 77 1006.5
20260508021111 49 0 0.0 0.0 0.00 0.00 0.27 77 1006.5
20260508021106 49 0 0.0 0.0 0.00 0.00 0.27 77 1006.6
20260508021102 49 0 0.0 0.0 0.00 0.00 0.27 77 1006.5
20260508021049 49 360 0.0 0.0 0.00 0.28 0.27 77 1006.7
20260508020852 49 0 0.0 0.0 0.00 0.00 0.27 77 1006.5
20260508020752 49 0 0.0 0.0 0.00 0.00 0.27 77 1006.5
20260508020652 49 0 0.0 0.0 0.00 0.00 0.27 77 1006.5
20260508020607 49 0 0.0 0.0 0.00 0.00 0.27 77 1006.5
20260508020551 49 0 0.0 0.0 0.00 0.00 0.27 77 1006.5
20260508020548 49 360 0.0 0.0 0.00 0.28 0.27 76 1006.6
20260508020451 49 0 0.0 0.0 0.00 0.00 0.27 76 1006.5
20260508020437 49 0 0.0 0.0 0.00 0.00 0.27 74 1006.4
20260508020433 49 0 0.0 0.0 0.00 0.00 0.27 75 1006.5
20260508020429 49 0 0.0 0.0 0.00 0.00 0.27 74 1006.4
20260508020424 49 0 0.0 0.0 0.00 0.00 0.27 76 1006.6
20260508020415 49 0 0.0 0.0 0.00 0.00 0.27 75 1006.5
20260508020048 49 360 0.0 0.0 0.00 0.28 0.27 74 1006.5
20260508015949 49 0 0.0 0.0 0.00 0.00 0.27 74 1006.4
20260508015931 49 0 0.0 0.0 0.00 0.00 0.27 74 1006.4
20260508015747 49 0 0.0 0.0 0.00 0.00 0.27 74 1006.4
20260508015714 49 0 0.0 0.0 0.00 0.00 0.27 74 1006.4
20260508015547 49 0 0.0 0.0 0.00 0.00 0.27 74 1006.4
20260508015533 49 360 0.0 0.0 0.00 0.29 0.27 74 1006.5
20260508015446 49 0 0.0 0.0 0.00 0.00 0.27 74 1006.4
20260508015413 49 0 0.0 0.0 0.00 0.00 0.27 73 1006.3
20260508015345 49 0 0.0 0.0 0.00 0.00 0.27 74 1006.4
20260508015314 49 0 0.0 0.0 0.00 0.00 0.27 73 1006.3
20260508015309 49 0 0.0 0.0 0.00 0.00 0.27 73 1006.4
20260508015259 49 0 0.0 0.0 0.00 0.00 0.27 73 1006.4
20260508015018 50 360 0.0 0.0 0.00 0.29 0.27 73 1006.4
20260508014955 50 0 0.0 0.0 0.00 0.00 0.27 73 1006.3
20260508014950 49 0 0.0 0.0 0.00 0.00 0.27 73 1006.3
20260508014754 50 0 0.0 0.0 0.00 0.00 0.27 73 1006.2
20260508014749 50 0 0.0 0.0 0.00 0.00 0.27 73 1006.3
20260508014601 50 0 0.0 0.0 0.00 0.00 0.27 73 1006.2
20260508014540 50 0 0.0 0.0 0.00 0.00 0.27 73 1006.2
20260508014519 50 360 0.0 0.0 0.00 0.29 0.27 73 1006.3
20260508014451 50 0 0.0 0.0 0.00 0.00 0.27 72 1006.3
20260508014447 50 0 0.0 0.0 0.00 0.00 0.27 72 1006.2
20260508014328 50 0 0.0 0.0 0.00 0.00 0.27 71 1006.3
20260508014238 50 0 0.0 0.0 0.00 0.00 0.27 72 1006.3
20260508014218 50 0 0.0 0.0 0.00 0.00 0.27 70 1006.3
20260508014213 50 0 0.0 0.0 0.00 0.00 0.27 71 1006.3
20260508014058 50 0 0.0 0.0 0.00 0.00 0.27 70 1006.3
20260508014054 50 0 0.0 0.0 0.00 0.00 0.27 71 1006.3
20260508014018 50 360 0.0 0.0 0.00 0.29 0.27 71 1006.4
20260508013735 50 0 0.0 0.0 0.00 0.00 0.27 70 1006.2
20260508013635 50 0 0.0 0.0 0.00 0.00 0.27 70 1006.3
20260508013534 50 0 0.0 0.0 0.00 0.00 0.27 70 1006.3
20260508013519 50 360 0.0 0.0 0.00 0.29 0.27 70 1006.4
20260508013456 50 0 0.0 0.0 0.00 0.00 0.27 70 1006.3
20260508013343 50 0 0.0 0.0 0.00 0.00 0.27 69 1006.3
20260508013133 51 0 0.0 0.0 0.00 0.00 0.27 69 1006.3
20260508013034 51 360 0.0 0.0 0.00 0.29 0.27 69 1006.3
20260508012932 51 0 0.0 0.0 0.00 0.00 0.27 69 1006.3
20260508012832 51 0 0.0 0.0 0.00 0.00 0.27 69 1006.3
20260508012732 51 0 0.0 0.0 0.00 0.00 0.27 69 1006.3
20260508012631 51 0 0.0 0.0 0.00 0.00 0.27 69 1006.3
20260508012531 51 0 0.0 0.0 0.00 0.00 0.27 68 1006.3
20260508012519 51 360 0.0 0.0 0.00 0.29 0.27 68 1006.3
20260508012429 51 0 0.0 0.0 0.00 0.00 0.27 68 1006.3
20260508012330 51 0 0.0 0.0 0.00 0.00 0.27 67 1006.3
20260508012230 51 0 0.0 0.0 0.00 0.00 0.27 67 1006.3
20260508012129 51 0 0.0 0.0 0.00 0.00 0.27 67 1006.3
20260508012101 51 0 0.0 0.0 0.00 0.00 0.27 67 1006.2
20260508012050 51 0 0.0 0.0 0.00 0.00 0.27 66 1006.2
20260508012046 51 0 0.0 0.0 0.00 0.00 0.27 67 1006.2
20260508012019 51 360 0.0 0.0 0.00 0.29 0.27 67 1006.2
20260508011726 51 0 0.0 0.0 0.00 0.00 0.27 66 1006.2
20260508011702 51 0 0.0 0.0 0.00 0.00 0.27 66 1006.1
20260508011654 51 0 0.0 0.0 0.00 0.00 0.27 66 1006.2
20260508011544 51 0 0.0 0.0 0.00 0.00 0.27 66 1006.2
20260508011534 51 0 0.0 0.0 0.00 0.00 0.27 66 1006.1
20260508011518 51 360 0.0 0.0 0.00 0.29 0.27 66 1006.1
20260508011226 52 0 0.0 0.0 0.00 0.00 0.27 66 1006.1
20260508011200 52 0 0.0 0.0 0.00 0.00 0.27 66 1006.2
20260508011036 52 0 0.0 0.0 0.00 0.00 0.27 66 1006.2
20260508011032 52 0 0.0 0.0 0.00 0.00 0.27 65 1006.1
20260508011019 52 360 0.0 0.0 0.00 0.30 0.27 65 1006.2
20260508010909 52 0 0.0 0.0 0.00 0.00 0.27 66 1006.2
20260508010904 52 0 0.0 0.0 0.00 0.00 0.27 66 1006.1
20260508010900 52 0 0.0 0.0 0.00 0.00 0.27 65 1006.1
20260508010855 52 0 0.0 0.0 0.00 0.00 0.27 66 1006.1
20260508010629 52 0 0.0 0.0 0.00 0.00 0.27 66 1006.1
20260508010519 52 360 0.0 0.0 0.00 0.31 0.27 65 1006.1
20260508010422 52 0 0.0 0.0 0.00 0.00 0.27 65 1006.1
20260508010320 52 0 0.0 0.0 0.00 0.00 0.27 64 1006.1
20260508010220 52 0 0.0 0.0 0.00 0.00 0.27 65 1006.1
20260508010048 53 0 0.0 0.0 0.00 0.00 0.27 65 1006.1
20260508010019 53 360 0.0 0.0 0.00 0.31 0.27 64 1006.1
20260508005918 53 0 0.0 0.0 0.00 0.00 0.27 63 1006.1
20260508005817 53 0 0.0 0.0 0.00 0.00 0.27 62 1006.2
20260508005716 53 0 0.0 0.0 0.00 0.00 0.27 61 1006.1
20260508005616 53 0 0.0 0.0 0.00 0.00 0.27 61 1006.1
20260508005519 53 360 0.0 0.0 0.00 0.31 0.27 61 1006.0
20260508005516 53 0 0.0 0.0 0.00 0.00 0.27 61 1006.1
20260508005416 53 0 0.0 0.0 0.00 0.00 0.27 61 1006.1
20260508005316 53 0 0.0 0.0 0.00 0.00 0.27 61 1006.1
20260508005216 53 0 0.0 0.0 0.00 0.00 0.27 60 1006.1
20260508005114 53 0 0.0 0.0 0.00 0.00 0.27 60 1006.1
20260508005046 53 0 0.0 0.0 0.00 0.00 0.27 60 1006.1
20260508005019 54 360 0.0 0.0 0.00 0.31 0.27 60 1006.0
20260508005014 53 0 0.0 0.0 0.00 0.00 0.27 60 1006.1
20260508004915 54 0 0.0 0.0 0.00 0.00 0.27 60 1006.1
20260508004813 54 0 0.0 0.0 0.00 0.00 0.27 60 1006.1
20260508004713 54 0 0.0 0.0 0.00 0.00 0.27 60 1006.1
20260508004613 54 0 0.0 0.0 0.00 0.00 0.27 60 1006.1
20260508004525 54 0 0.0 0.0 0.00 0.00 0.27 60 1006.0
20260508004521 54 0 0.0 0.0 0.00 0.00 0.27 60 1006.1
20260508004519 54 360 0.0 0.0 0.00 0.31 0.27 60 1006.0
20260508004324 55 0 0.0 0.0 0.00 0.00 0.27 59 1006.1
20260508004320 54 0 0.0 0.0 0.00 0.00 0.27 59 1006.1
20260508004139 55 0 0.0 0.0 0.00 0.00 0.27 59 1006.0
20260508004134 55 0 0.0 0.0 0.00 0.00 0.27 59 1006.0
20260508004126 55 0 0.0 0.0 0.00 0.00 0.27 58 1006.0
20260508004104 55 360 0.0 0.0 0.00 0.31 0.27 58 1006.0
20260508003809 55 0 0.0 0.0 0.00 0.00 0.27 58 1006.0
20260508003708 55 0 0.0 0.0 0.00 0.00 0.27 57 1005.9
20260508003609 55 0 0.0 0.0 0.00 0.00 0.27 56 1005.9
20260508003540 55 0 0.0 0.0 0.00 0.00 0.27 56 1005.9
20260508003520 56 360 0.0 0.0 0.00 0.31 0.27 56 1005.9
20260508003508 56 0 0.0 0.0 0.00 0.00 0.27 56 1005.9
20260508003408 56 0 0.0 0.0 0.00 0.00 0.27 55 1005.9
20260508003308 56 0 0.0 0.0 0.00 0.00 0.27 53 1005.9
20260508003234 56 0 0.0 0.0 0.00 0.00 0.27 52 1005.9
20260508003121 56 0 0.0 0.0 0.00 0.00 0.27 52 1005.9
20260508003113 56 0 0.0 0.0 0.00 0.00 0.27 52 1005.9
20260508003019 56 360 0.0 0.0 0.00 0.31 0.27 52 1005.9
20260508002906 56 0 0.0 0.0 0.00 0.00 0.27 52 1006.0
20260508002809 57 0 0.0 0.0 0.00 0.00 0.27 51 1005.9
20260508002805 57 0 0.0 0.0 0.00 0.00 0.27 52 1005.9
20260508002705 57 0 0.0 0.0 0.00 0.00 0.27 51 1006.0
20260508002644 57 0 0.0 0.0 0.00 0.00 0.27 51 1005.9
20260508002519 57 360 0.0 0.0 0.00 0.31 0.27 52 1005.8
20260508002504 57 0 0.0 0.0 0.00 0.00 0.27 52 1005.9
20260508002416 57 0 0.0 0.0 0.00 0.00 0.27 54 1005.9
20260508002412 57 0 0.0 0.0 0.00 0.00 0.27 53 1005.9
20260508002202 58 0 0.0 0.0 0.00 0.00 0.27 54 1005.9
20260508002036 58 0 0.0 0.0 0.00 0.00 0.27 54 1005.9
20260508002018 58 360 0.0 0.0 0.00 0.31 0.27 54 1005.8
20260508002001 58 0 0.0 0.0 0.00 0.00 0.27 54 1005.9
20260508001902 58 0 0.0 0.0 0.00 0.00 0.27 54 1005.9
20260508001801 58 0 0.0 0.0 0.00 0.00 0.27 54 1005.9
20260508001714 58 0 0.0 0.0 0.00 0.00 0.27 51 1005.9
20260508001710 58 0 0.0 0.0 0.00 0.00 0.27 53 1005.9
20260508001604 58 360 0.0 0.0 0.00 0.31 0.27 51 1005.7
20260508001535 58 0 0.0 0.0 0.00 0.00 0.27 51 1005.9
20260508001500 58 0 0.0 0.0 0.00 0.00 0.27 51 1005.8
20260508001359 58 0 0.0 0.0 0.00 0.00 0.27 51 1005.8
20260508001259 59 0 0.0 0.0 0.00 0.00 0.27 50 1005.8
20260508001159 59 0 0.0 0.0 0.00 0.00 0.27 49 1005.8
20260508001035 59 0 0.0 0.0 0.00 0.00 0.27 48 1005.8
20260508001019 59 360 0.0 0.0 0.00 0.31 0.27 48 1005.7
20260508000958 59 0 0.0 0.0 0.00 0.00 0.27 48 1005.8
20260508000859 59 0 0.0 0.0 0.00 0.00 0.27 47 1005.8
20260508000758 59 0 0.0 0.0 0.00 0.00 0.27 47 1005.8
20260508000712 59 0 0.0 0.0 0.00 0.00 0.27 46 1005.8
20260508000707 59 0 0.0 0.0 0.00 0.00 0.27 47 1005.8
20260508000535 59 0 0.0 0.0 0.00 0.00 0.27 45 1005.8
20260508000519 59 360 0.0 0.0 0.00 0.31 0.27 45 1005.7
20260508000457 59 0 0.0 0.0 0.00 0.00 0.27 45 1005.8
20260508000357 60 0 0.0 0.0 0.00 0.00 0.27 44 1005.7
20260508000300 60 0 0.0 0.0 0.00 0.00 0.27 44 1005.7
20260508000252 60 0 0.0 0.0 0.00 0.00 0.27 44 1005.7
20260508000156 60 0 0.0 0.0 0.00 0.00 0.27 44 1005.7
20260508000142 60 0 0.0 0.0 0.00 0.00 0.27 44 1005.7
20260508000019 60 360 0.0 0.0 0.00 0.31 0.27 44 1005.6
20260507235955 60 0 0.0 0.0 0.00 0.00 0.27 44 1005.7
20260507235922 60 0 0.0 0.0 0.00 0.00 0.27 43 1005.7
20260507235918 60 0 0.0 0.0 0.00 0.00 0.27 43 1005.7
20260507235912 60 0 0.0 0.0 0.00 0.00 0.27 43 1005.7
20260507235534 60 0 0.0 0.0 0.00 0.00 0.27 43 1005.7
20260507235519 60 360 0.0 0.0 0.00 0.31 0.27 43 1005.5
20260507235453 60 0 0.0 0.0 0.00 0.00 0.27 43 1005.6
20260507235352 60 0 0.0 0.0 0.00 0.00 0.27 42 1005.6
20260507235252 60 0 0.0 0.0 0.00 0.00 0.27 42 1005.6
20260507235151 61 0 0.0 0.0 0.00 0.00 0.27 43 1005.6
20260507235033 61 360 0.0 0.0 0.00 0.31 0.27 42 1005.5
20260507234952 61 0 0.0 0.0 0.00 0.00 0.27 42 1005.6
20260507234850 61 0 0.0 0.0 0.00 0.00 0.27 42 1005.6
20260507234750 61 0 0.0 0.0 0.00 0.00 0.27 41 1005.6
20260507234650 61 0 0.0 0.0 0.00 0.00 0.27 41 1005.6
20260507234549 61 0 0.0 0.0 0.00 0.00 0.27 40 1005.6
20260507234534 61 0 0.0 0.0 0.00 0.00 0.27 40 1005.6
20260507234519 61 360 0.0 0.0 0.00 0.31 0.27 40 1005.4
20260507234449 61 0 0.0 0.0 0.00 0.00 0.27 40 1005.5
20260507234349 61 0 0.0 0.0 0.00 0.00 0.27 40 1005.5
20260507234302 61 0 0.0 0.0 0.00 0.00 0.27 40 1005.5
20260507234257 61 0 0.0 0.0 0.00 0.00 0.27 40 1005.5
20260507234108 61 0 0.0 0.0 0.00 0.00 0.27 41 1005.5
20260507234020 61 360 0.0 0.0 0.00 0.31 0.27 41 1005.4
20260507233956 61 0 0.0 0.0 0.00 0.00 0.27 40 1005.5
20260507233746 62 0 0.0 0.0 0.00 0.00 0.27 39 1005.5
20260507233646 62 0 0.0 0.0 0.00 0.00 0.27 40 1005.5
20260507233604 62 0 0.0 0.0 0.00 0.00 0.27 40 1005.5
20260507233552 62 0 0.0 0.0 0.00 0.00 0.27 40 1005.5
20260507233519 62 360 0.0 0.0 0.00 0.31 0.27 40 1005.4
20260507233343 62 0 0.0 0.0 0.00 0.00 0.27 40 1005.5
20260507233243 62 0 0.0 0.0 0.00 0.00 0.27 40 1005.5
20260507233143 62 0 0.0 0.0 0.00 0.00 0.27 40 1005.5
20260507233101 62 0 0.0 0.0 0.00 0.00 0.27 39 1005.5
20260507233048 62 0 0.0 0.0 0.00 0.00 0.27 40 1005.5
20260507233019 62 360 0.0 0.0 0.00 0.31 0.27 40 1005.4
20260507232840 62 0 0.0 0.0 0.00 0.00 0.27 38 1005.5
20260507232740 62 0 0.0 0.0 0.00 0.00 0.27 39 1005.5
20260507232640 62 0 0.0 0.0 0.00 0.00 0.27 39 1005.5
20260507232528 62 0 0.0 0.0 0.00 0.00 0.27 39 1005.5
20260507232518 62 360 0.0 0.0 0.00 0.31 0.27 39 1005.4
20260507232514 62 0 0.0 0.0 0.00 0.00 0.27 38 1005.5
20260507232509 62 0 0.0 0.0 0.00 0.00 0.27 39 1005.5
20260507232355 62 0 0.0 0.0 0.00 0.00 0.27 38 1005.5
20260507232027 62 0 0.0 0.0 0.00 0.00 0.27 38 1005.5
20260507232019 62 360 0.0 0.0 0.00 0.31 0.27 38 1005.3
20260507231936 62 0 0.0 0.0 0.00 0.00 0.27 38 1005.4
20260507231850 62 0 0.0 0.0 0.00 0.00 0.27 37 1005.4
20260507231845 62 0 0.0 0.0 0.00 0.00 0.27 37 1005.5
20260507231635 62 0 0.0 0.0 0.00 0.00 0.27 37 1005.4
20260507231525 62 0 0.0 0.0 0.00 0.00 0.27 37 1005.4
20260507231518 63 360 0.0 0.0 0.00 0.31 0.27 36 1005.3
20260507231434 62 0 0.0 0.0 0.00 0.00 0.27 36 1005.4
20260507231334 63 0 0.0 0.0 0.00 0.00 0.27 37 1005.5
20260507231233 63 0 0.0 0.0 0.00 0.00 0.27 37 1005.5
20260507231133 63 0 0.0 0.0 0.00 0.00 0.27 37 1005.6
20260507231025 63 0 0.0 0.0 0.00 0.00 0.27 36 1005.6
20260507231019 63 360 0.0 0.0 0.00 0.31 0.27 37 1005.5
20260507230932 63 0 0.0 0.0 0.00 0.00 0.27 37 1005.7
20260507230850 63 0 0.0 0.0 0.00 0.00 0.27 34 1005.6
20260507230846 63 0 0.0 0.0 0.00 0.00 0.27 35 1005.6
20260507230841 63 0 0.0 0.0 0.00 0.00 0.27 37 1005.6
20260507230640 63 0 0.0 0.0 0.00 0.00 0.27 35 1005.6
20260507230631 63 0 0.0 0.0 0.00 0.00 0.27 35 1005.6
20260507230520 63 360 0.0 0.0 0.00 0.31 0.27 35 1005.4
20260507230444 63 0 0.0 0.0 0.00 0.00 0.27 35 1005.6
20260507230439 63 0 0.0 0.0 0.00 0.00 0.27 36 1005.6
20260507230229 63 0 0.0 0.0 0.00 0.00 0.27 35 1005.6
20260507230143 64 0 0.0 0.0 0.00 0.00 0.27 36 1005.5
20260507230137 63 0 0.0 0.0 0.00 0.00 0.27 35 1005.5
20260507230021 64 0 0.0 0.0 0.00 0.00 0.27 36 1005.5
20260507230019 64 360 0.0 0.0 0.00 0.31 0.27 36 1005.3
20260507225927 64 0 0.0 0.0 0.00 0.00 0.27 35 1005.5
20260507225826 64 0 0.0 2.6 0.00 0.00 0.27 35 1005.5
20260507225742 64 0 0.0 2.6 0.00 0.00 0.27 35 1005.4
20260507225726 64 0 0.0 2.6 0.00 0.00 0.27 35 1005.5
20260507225637 64 0 0.0 2.6 0.00 0.00 0.27 35 1005.4
20260507225628 64 0 0.0 2.6 0.00 0.00 0.27 35 1005.4
20260507225549 64 360 0.0 2.6 0.00 0.31 0.27 35 1005.2
20260507225424 64 0 0.0 2.6 0.00 0.00 0.27 35 1005.4
20260507225325 64 0 0.0 2.6 0.00 0.00 0.27 35 1005.4
20260507225245 64 0 0.0 2.6 0.00 0.00 0.27 35 1005.5
20260507225224 64 0 0.0 2.6 0.00 0.00 0.27 35 1005.4
20260507225135 64 0 0.0 2.6 0.00 0.00 0.27 35 1005.4
20260507225126 64 0 0.0 2.6 0.00 0.00 0.27 35 1005.5
20260507225019 64 360 0.0 2.6 0.00 0.31 0.27 35 1005.2
20260507224924 64 0 0.0 2.6 0.00 0.00 0.27 35 1005.4
20260507224837 65 0 0.0 2.6 0.00 0.00 0.27 36 1005.4
20260507224832 65 0 0.0 1.7 0.00 0.00 0.27 36 1005.4
20260507224623 65 0 0.0 2.6 0.00 0.00 0.27 35 1005.4
20260507224554 65 0 0.0 3.5 0.00 0.00 0.27 33 1005.4
20260507224550 65 0 0.0 3.5 0.00 0.00 0.27 35 1005.4
20260507224538 65 0 0.0 2.6 0.00 0.00 0.27 34 1005.4
20260507224519 65 360 0.0 2.6 0.00 0.31 0.27 34 1005.2
20260507224234 65 0 0.0 3.5 0.00 0.00 0.27 35 1005.4
20260507224229 65 0 0.0 3.5 0.00 0.00 0.27 34 1005.4
20260507224021 65 0 0.0 3.5 0.00 0.00 0.27 34 1005.4
20260507224019 65 360 0.0 3.5 0.00 0.31 0.27 34 1005.2
20260507223933 65 0 0.0 3.5 0.00 0.00 0.27 34 1005.4
20260507223928 65 0 0.0 3.5 0.00 0.00 0.27 35 1005.4
20260507223717 65 0 0.0 3.5 0.00 0.00 0.27 34 1005.5
20260507223618 65 0 0.0 3.5 0.00 0.00 0.27 34 1005.5
20260507223523 65 252 0.0 3.5 0.00 0.00 0.27 34 1005.4
20260507223520 65 303 0.0 3.5 0.00 0.31 0.27 34 1005.2
20260507223517 65 286 0.0 3.5 0.00 0.00 0.27 34 1005.4
20260507223417 65 319 0.0 1.7 0.00 0.00 0.27 36 1005.4
20260507223317 65 249 0.0 1.7 0.00 0.00 0.27 35 1005.4
20260507223257 65 252 0.0 1.7 0.00 0.00 0.27 34 1005.4
20260507223252 65 249 0.0 1.7 0.00 0.00 0.27 35 1005.4
20260507223024 65 252 0.0 1.7 0.00 0.00 0.27 34 1005.4
20260507223019 65 252 0.0 3.5 0.00 0.31 0.27 34 1005.2
20260507222814 65 0 0.0 4.3 0.00 0.00 0.27 34 1005.4
20260507222740 65 0 0.0 4.3 0.00 0.00 0.27 34 1005.4
20260507222627 65 0 0.0 4.3 0.00 0.00 0.27 34 1005.2
20260507222618 65 0 0.0 4.3 0.00 0.00 0.27 34 1005.2
20260507222519 65 360 0.0 4.3 0.00 0.31 0.27 34 1005.2
20260507222412 65 0 0.0 4.3 0.00 0.00 0.27 34 1005.4
20260507222312 65 0 0.0 4.3 0.00 0.00 0.27 35 1005.4
20260507222211 65 0 0.0 4.3 0.00 0.00 0.27 36 1005.5
20260507222110 65 0 0.0 4.3 0.00 0.00 0.27 34 1005.4
20260507222019 65 360 3.5 4.3 0.00 0.31 0.27 33 1005.2
20260507222015 65 0 0.0 4.3 0.00 0.00 0.27 33 1005.4
20260507222010 65 0 0.0 4.3 0.00 0.00 0.27 33 1005.4
20260507221910 65 0 0.0 0.0 0.00 0.00 0.27 34 1005.2
20260507221810 65 236 0.0 0.0 0.00 0.00 0.27 33 1005.4
20260507221709 65 309 0.0 1.7 0.00 0.00 0.27 34 1005.4
20260507221608 65 306 0.0 1.7 0.00 0.00 0.27 34 1005.5
20260507221519 65 253 0.0 1.7 0.00 0.31 0.27 34 1005.2
20260507221509 65 253 0.0 1.7 0.00 0.00 0.27 34 1005.4
20260507221444 65 0 0.0 1.7 0.00 0.00 0.27 33 1005.4
20260507221438 65 241 0.0 1.7 0.00 0.00 0.27 34 1005.5
20260507221325 65 0 0.0 1.7 0.00 0.00 0.27 33 1005.4
20260507221033 65 0 0.0 1.7 0.00 0.00 0.27 33 1005.5
20260507221027 65 232 0.0 1.7 0.00 0.00 0.27 33 1005.5
20260507221018 65 360 0.0 1.7 0.00 0.31 0.27 33 1005.3
20260507220914 65 309 0.0 1.7 0.00 0.00 0.27 34 1005.5
20260507220705 65 275 0.0 0.9 0.00 0.00 0.27 34 1005.5
20260507220603 65 275 0.0 0.9 0.00 0.00 0.27 35 1005.6
20260507220519 65 275 0.0 0.9 0.00 0.31 0.27 33 1005.3
20260507220514 65 275 0.0 0.9 0.00 0.00 0.27 33 1005.6
20260507220502 65 275 0.0 0.9 0.00 0.00 0.27 33 1005.5
20260507220400 65 290 0.0 0.9 0.00 0.00 0.27 33 1005.5
20260507220300 65 310 0.0 0.9 0.00 0.00 0.27 33 1005.5
20260507220159 65 319 0.0 0.9 0.00 0.00 0.27 34 1005.5
20260507220057 65 318 0.0 0.9 0.00 0.00 0.27 33 1005.5
20260507220049 65 275 0.0 0.9 0.00 0.31 0.27 33 1005.2
20260507220017 65 276 0.0 0.9 0.00 0.00 0.27 33 1005.4
20260507220010 65 51 0.0 0.9 0.00 0.00 0.27 33 1005.4
20260507220006 65 292 0.0 0.9 0.00 0.00 0.27 33 1005.4
20260507215756 65 319 0.0 0.9 0.00 0.00 0.27 33 1005.5
20260507215708 65 296 0.0 0.9 0.00 0.00 0.27 33 1005.5
20260507215704 65 277 0.0 0.9 0.00 0.00 0.27 33 1005.5
20260507215519 65 309 0.9 0.9 0.00 0.31 0.27 33 1005.3
20260507215513 65 315 0.0 0.9 0.00 0.00 0.27 33 1005.5
20260507215454 65 278 0.0 0.0 0.00 0.00 0.27 32 1005.5
20260507215354 65 284 0.0 0.9 0.00 0.00 0.27 31 1005.4
20260507215307 65 297 0.0 0.9 0.00 0.00 0.27 32 1005.4
20260507215052 66 344 0.0 0.9 0.00 0.00 0.27 32 1005.4
20260507215019 66 342 0.0 0.0 0.00 0.31 0.27 32 1005.2
20260507215012 66 342 0.0 0.9 0.00 0.00 0.27 32 1005.4
20260507214951 66 342 0.0 0.9 0.00 0.00 0.27 33 1005.4
20260507214904 66 311 0.0 0.9 0.00 0.00 0.27 33 1005.4
20260507214900 66 325 0.0 0.9 0.00 0.00 0.27 34 1005.2
20260507214704 66 340 0.0 2.6 0.00 0.00 0.27 33 1005.4
20260507214700 66 327 0.0 0.9 0.00 0.00 0.27 34 1005.4
20260507214549 66 5 0.0 0.9 0.00 0.31 0.27 32 1005.2
20260507214512 66 5 0.0 2.6 0.00 0.00 0.27 32 1005.4
20260507214503 66 309 0.0 3.5 0.00 0.00 0.27 34 1005.4
20260507214459 66 9 0.0 2.6 0.00 0.00 0.27 33 1005.4
20260507214316 66 307 0.0 3.5 0.00 0.00 0.27 32 1005.4
20260507214312 66 265 0.0 3.5 0.00 0.00 0.27 32 1005.5
20260507214307 66 309 0.0 3.5 0.00 0.00 0.27 33 1005.4
20260507214019 66 306 0.0 7.8 0.00 0.31 0.27 32 1005.3
20260507214011 66 306 0.0 7.8 0.00 0.00 0.27 32 1005.5
20260507213948 66 263 0.0 7.8 0.00 0.00 0.27 32 1005.5
20260507213848 66 316 0.0 7.8 0.00 0.00 0.27 32 1005.5
20260507213747 66 317 0.0 7.8 0.00 0.00 0.27 31 1005.6
20260507213737 66 276 0.0 7.8 0.00 0.00 0.27 32 1005.6
20260507213646 66 319 0.0 7.8 0.00 0.00 0.27 32 1005.5
20260507213618 66 284 0.0 7.8 0.00 0.00 0.27 33 1005.6
20260507213518 66 277 0.0 7.8 0.00 0.31 0.27 32 1005.4
20260507213446 66 280 0.0 7.8 0.00 0.00 0.27 32 1005.6
20260507213346 66 267 0.0 7.8 0.00 0.00 0.27 33 1005.5
20260507213245 66 257 0.0 7.8 0.00 0.00 0.27 33 1005.5
20260507213145 66 275 0.0 7.8 0.00 0.00 0.27 33 1005.5
20260507213045 66 280 0.0 7.8 0.00 0.00 0.27 33 1005.5
20260507213019 66 283 0.0 2.6 0.00 0.31 0.27 33 1005.3
20260507213010 66 283 0.0 2.6 0.00 0.00 0.27 33 1005.5
20260507212957 66 275 0.0 2.6 0.00 0.00 0.27 33 1005.5
20260507212953 66 271 0.0 2.6 0.00 0.00 0.27 33 1005.5
20260507212744 66 311 0.0 2.6 0.00 0.00 0.27 33 1005.5
20260507212642 66 281 0.0 2.6 0.00 0.00 0.27 33 1005.5
20260507212603 66 321 0.0 2.6 0.00 0.00 0.27 34 1005.5
20260507212558 66 234 0.0 2.6 0.00 0.00 0.27 33 1005.5
20260507212550 66 291 0.0 2.6 0.00 0.00 0.27 34 1005.5
20260507212519 66 291 0.0 2.6 0.00 0.31 0.27 34 1005.3
20260507212357 65 247 0.0 3.5 0.00 0.00 0.27 34 1005.5
20260507212351 65 323 0.0 2.6 0.00 0.00 0.27 34 1005.6
20260507212155 65 325 0.0 7.0 0.00 0.00 0.27 32 1005.5
20260507212149 65 229 0.0 6.1 0.00 0.00 0.27 32 1005.6
20260507212030 65 323 0.0 7.0 0.00 0.00 0.27 32 1005.5
20260507212023 65 277 0.0 7.0 0.00 0.00 0.27 32 1005.5
20260507212019 65 323 0.0 7.0 0.00 0.31 0.27 32 1005.3
20260507211910 65 265 0.0 7.0 0.00 0.00 0.27 32 1005.5
20260507211757 65 273 0.0 7.0 0.00 0.00 0.27 33 1005.5
20260507211519 65 330 0.0 7.0 0.00 0.31 0.27 37 1005.2
20260507211510 65 330 0.0 7.0 0.00 0.00 0.27 37 1005.4
20260507211438 65 330 0.0 7.0 0.00 0.00 0.27 35 1005.4
20260507211338 65 290 0.0 7.0 0.00 0.00 0.27 33 1005.5
20260507211237 65 262 0.0 7.0 0.00 0.00 0.27 33 1005.4
20260507211136 65 279 0.0 7.0 0.00 0.00 0.27 33 1005.4
20260507211035 65 302 0.0 5.2 0.00 0.00 0.27 35 1005.4
20260507211019 65 315 0.0 3.5 0.00 0.31 0.27 35 1005.2
20260507211009 65 315 0.0 5.2 0.00 0.00 0.27 35 1005.4
20260507210935 65 315 0.0 5.2 0.00 0.00 0.27 35 1005.4
20260507210834 65 302 0.0 3.5 0.00 0.00 0.27 38 1005.2
20260507210733 65 70 0.0 3.5 0.00 0.00 0.27 36 1005.2
20260507210633 65 257 0.0 3.5 0.00 0.00 0.27 36 1005.2
20260507210533 65 326 0.0 3.5 0.00 0.00 0.27 37 1005.2
20260507210519 65 304 0.0 3.5 0.00 0.31 0.27 37 1005.1
20260507210514 65 304 0.0 3.5 0.00 0.00 0.27 37 1005.2
20260507210508 65 0 0.0 0.0 0.00 0.00 0.27 34 1005.4
20260507210504 65 0 0.0 0.0 0.00 0.00 0.27 34 1005.2
20260507210459 65 0 0.0 1.7 0.00 0.00 0.27 35 1005.2
20260507210345 65 0 0.0 1.7 0.00 0.00 0.27 33 1005.2
20260507210227 65 0 0.0 0.0 0.00 0.00 0.27 35 1005.2
20260507210019 65 360 0.0 0.0 0.00 0.31 0.27 34 1005.2
20260507205929 65 0 0.0 0.0 0.00 0.00 0.27 38 1005.4
20260507205842 65 0 0.0 0.0 0.00 0.00 0.27 34 1005.2
20260507205727 65 0 0.0 0.0 0.00 0.00 0.27 34 1005.2
20260507205627 65 0 0.0 0.0 0.00 0.00 0.27 33 1005.4
20260507205618 65 0 0.0 0.0 0.00 0.00 0.27 35 1005.2
20260507205519 65 360 0.0 0.0 0.00 0.31 0.27 34 1005.2
20260507205426 65 0 0.0 0.0 0.00 0.00 0.27 33 1005.4
20260507205326 65 0 0.0 0.9 0.00 0.00 0.27 34 1005.2
20260507205224 66 0 0.0 0.9 0.00 0.00 0.27 35 1005.2
20260507205124 66 0 0.0 0.9 0.00 0.00 0.27 34 1005.2
20260507205023 66 0 0.0 0.9 0.00 0.00 0.27 33 1005.2
20260507205019 66 360 0.0 0.9 0.00 0.31 0.27 33 1005.1
20260507205010 66 0 0.0 0.9 0.00 0.00 0.27 34 1005.2
20260507204923 66 0 0.0 0.9 0.00 0.00 0.27 34 1005.2
20260507204823 66 0 0.0 0.9 0.00 0.00 0.27 33 1005.2
20260507204722 66 0 0.0 0.9 0.00 0.00 0.27 32 1005.2
20260507204622 66 0 0.0 0.9 0.00 0.00 0.27 32 1005.2
20260507204521 66 0 0.0 0.9 0.00 0.00 0.27 32 1005.2
20260507204519 67 360 0.0 0.9 0.00 0.31 0.27 32 1005.1
20260507204510 67 0 0.0 0.9 0.00 0.00 0.27 32 1005.2
20260507204421 67 0 0.0 0.9 0.00 0.00 0.27 31 1005.2
20260507204335 67 0 0.0 0.9 0.00 0.00 0.27 30 1005.2
20260507204330 67 0 0.0 0.9 0.00 0.00 0.27 30 1005.2
20260507204120 67 0 0.0 0.9 0.00 0.00 0.27 30 1005.2
20260507204020 67 226 0.0 0.9 0.00 0.00 0.27 30 1005.2
20260507204009 67 232 0.0 0.9 0.00 0.00 0.27 30 1005.2
20260507203920 67 265 0.0 0.9 0.00 0.00 0.27 32 1005.2
20260507203818 67 250 0.0 0.9 0.00 0.00 0.27 32 1005.2
20260507203718 67 265 0.0 0.9 0.00 0.00 0.27 32 1005.2
20260507203618 67 271 0.0 0.9 0.00 0.00 0.27 33 1005.2
20260507203604 67 252 0.0 4.3 0.00 0.00 0.27 33 1005.1
20260507203559 67 274 0.0 4.3 0.00 0.00 0.27 34 1005.1
20260507203554 67 319 0.0 4.3 0.00 0.00 0.27 34 1005.1
20260507203550 67 286 0.0 4.3 0.00 0.31 0.27 33 1005.0
20260507203542 67 287 0.0 4.3 0.00 0.00 0.27 33 1005.1
20260507203115 67 313 0.0 4.3 0.00 0.00 0.27 33 1005.1
20260507203019 67 317 0.0 4.3 0.00 0.31 0.27 32 1004.9
20260507203015 67 317 0.0 4.3 0.00 0.00 0.27 32 1005.0
20260507203007 67 321 0.0 4.3 0.00 0.00 0.27 32 1005.0
20260507202914 67 222 0.0 4.3 0.00 0.00 0.27 32 1005.1
20260507202813 67 294 0.0 4.3 0.00 0.00 0.27 32 1005.1
20260507202713 67 251 0.0 4.3 0.00 0.00 0.27 33 1005.2
20260507202611 67 293 0.0 4.3 0.00 0.00 0.27 33 1005.2
20260507202545 67 306 0.0 0.9 0.00 0.00 0.27 32 1005.2
20260507202541 67 285 0.0 0.9 0.00 0.00 0.27 33 1005.1
20260507202529 67 297 0.0 0.9 0.00 0.00 0.27 32 1005.2
20260507202519 67 297 0.0 0.9 0.00 0.31 0.27 32 1005.1
20260507202211 67 261 0.0 0.9 0.00 0.00 0.27 33 1005.2
20260507202110 67 309 0.0 0.9 0.00 0.00 0.27 33 1005.1
20260507202034 67 226 0.0 0.9 0.00 0.31 0.27 33 1005.0
20260507202013 67 256 0.0 0.9 0.00 0.00 0.27 33 1005.1
20260507202006 67 271 0.0 0.9 0.00 0.00 0.27 33 1005.1
20260507201909 67 283 0.0 0.9 0.00 0.00 0.27 33 1005.1
20260507201808 67 275 0.0 0.9 0.00 0.00 0.27 33 1005.1
20260507201740 66 275 0.0 0.9 0.00 0.00 0.27 36 1005.1
20260507201736 66 275 0.0 0.9 0.00 0.00 0.27 35 1005.1
20260507201730 67 275 0.0 0.9 0.00 0.00 0.27 34 1005.1
20260507201519 66 275 0.0 0.9 0.00 0.31 0.27 35 1005.0
20260507201508 66 275 0.0 0.9 0.00 0.00 0.27 35 1005.1
20260507201406 66 275 0.0 0.9 0.00 0.00 0.27 36 1005.2
20260507201348 65 270 0.0 0.9 0.00 0.00 0.27 35 1005.2
20260507201341 66 275 0.0 0.9 0.00 0.00 0.27 35 1005.2
20260507201228 66 275 0.0 0.9 0.00 0.00 0.27 34 1005.2
20260507201219 66 271 0.0 0.9 0.00 0.00 0.27 35 1005.2
20260507201019 66 270 0.0 0.9 0.00 0.31 0.27 35 1005.1
20260507200918 65 311 0.0 0.9 0.00 0.00 0.27 37 1005.4
20260507200913 65 269 0.0 0.9 0.00 0.00 0.27 35 1005.2
20260507200703 65 283 0.0 0.9 0.00 0.00 0.27 35 1005.4
20260507200602 65 302 0.0 0.9 0.00 0.00 0.27 36 1005.4
20260507200519 65 272 0.0 0.0 0.00 0.31 0.27 37 1005.2
20260507200503 65 272 0.0 0.0 0.00 0.00 0.27 37 1005.4
20260507200401 65 295 0.0 0.0 0.00 0.00 0.27 40 1005.4
20260507200301 65 295 0.0 0.0 0.00 0.00 0.27 36 1005.4
20260507200201 65 295 0.0 0.0 0.00 0.00 0.27 34 1005.4
20260507200100 64 294 0.0 0.0 0.00 0.00 0.27 33 1005.5
20260507200019 64 296 0.0 0.0 0.00 0.31 0.27 37 1005.2
20260507200000 64 296 0.0 0.0 0.00 0.00 0.27 37 1005.4
20260507195900 64 246 0.0 0.0 0.00 0.00 0.27 37 1005.4
20260507195759 64 0 0.0 0.0 0.00 0.00 0.27 37 1005.4
20260507195737 65 0 0.0 0.9 0.00 0.00 0.27 35 1005.5
20260507195659 64 0 0.0 0.0 0.00 0.00 0.27 36 1005.5
20260507195626 65 0 0.0 0.9 0.00 0.00 0.27 34 1005.6
20260507195621 65 0 0.0 0.0 0.00 0.00 0.27 33 1005.5
20260507195519 65 360 0.0 0.9 0.00 0.31 0.27 35 1005.3
20260507195507 65 0 0.0 0.9 0.00 0.00 0.27 35 1005.5
20260507195256 65 0 0.0 0.9 0.00 0.00 0.27 33 1005.6
20260507195156 65 0 0.0 0.9 0.00 0.00 0.27 34 1005.6
20260507195055 66 0 0.0 0.9 0.00 0.00 0.27 31 1005.5
20260507195019 66 360 0.0 0.9 0.00 0.31 0.27 32 1005.3
20260507194955 66 0 0.0 0.9 0.00 0.00 0.27 32 1005.5
20260507194855 66 0 0.0 0.9 0.00 0.00 0.27 33 1005.6
20260507194754 66 0 0.0 0.9 0.00 0.00 0.27 32 1005.6
20260507194654 66 0 0.0 0.9 0.00 0.00 0.27 33 1005.7
20260507194614 67 259 0.0 0.9 0.00 0.00 0.27 34 1005.7
20260507194609 67 0 0.0 0.9 0.00 0.00 0.27 32 1005.7
20260507194559 67 277 0.0 0.0 0.00 0.00 0.27 34 1005.7
20260507194549 67 360 0.9 0.9 0.00 0.31 0.27 34 1005.5
20260507194352 67 0 0.0 0.9 0.00 0.00 0.27 34 1005.6
20260507194306 67 236 0.0 2.6 0.00 0.00 0.27 38 1005.7
20260507194301 67 238 0.0 2.6 0.00 0.00 0.27 38 1005.7
20260507194051 67 236 0.0 2.6 0.00 0.00 0.27 37 1005.7
20260507194019 67 236 0.0 2.6 0.00 0.31 0.27 37 1005.5
20260507193956 67 242 0.0 2.6 0.00 0.00 0.27 35 1005.7
20260507193951 67 244 0.0 2.6 0.00 0.00 0.27 35 1005.7
20260507193850 67 245 0.0 2.6 0.00 0.00 0.27 36 1005.7
20260507193750 67 242 0.0 2.6 0.00 0.00 0.27 36 1005.8
20260507193735 67 11 0.0 2.6 0.00 0.00 0.27 31 1005.7
20260507193731 67 245 0.0 2.6 0.00 0.00 0.27 32 1005.8
20260507193725 67 254 0.0 2.6 0.00 0.00 0.27 33 1005.8
20260507193720 67 22 0.0 2.6 0.00 0.00 0.27 33 1005.7
20260507193602 67 259 0.0 2.6 0.00 0.00 0.27 32 1005.8
20260507193519 67 261 0.0 2.6 0.00 0.31 0.27 31 1005.6
20260507193247 67 288 0.0 1.7 0.00 0.00 0.27 34 1005.8
20260507193145 67 319 0.0 7.0 0.00 0.00 0.27 32 1005.8
20260507193046 67 314 0.0 7.0 0.00 0.00 0.27 32 1005.7
20260507193019 67 314 1.7 7.0 0.00 0.31 0.27 32 1005.6
20260507192953 67 253 0.0 7.0 0.00 0.00 0.27 33 1005.8
20260507192945 67 252 0.0 7.0 0.00 0.00 0.27 33 1005.8
20260507192844 67 272 0.0 7.0 0.00 0.00 0.27 32 1005.8
20260507192744 67 281 0.0 7.0 0.00 0.00 0.27 34 1005.8
20260507192658 67 271 0.0 7.0 0.00 0.00 0.27 31 1005.8
20260507192652 67 255 0.0 7.0 0.00 0.00 0.27 33 1005.8
20260507192519 68 289 0.0 7.0 0.00 0.31 0.27 32 1005.6
20260507192454 67 288 0.0 7.0 0.00 0.00 0.27 33 1005.8
20260507192443 67 316 0.0 7.0 0.00 0.00 0.27 33 1005.8
20260507192356 67 225 0.0 7.0 0.00 0.00 0.27 32 1005.8
20260507192351 67 248 0.0 7.0 0.00 0.00 0.27 32 1005.8
20260507192215 67 287 0.0 6.1 0.00 0.00 0.27 36 1005.8
20260507192141 67 213 0.0 0.9 0.00 0.00 0.27 34 1005.8
20260507192109 67 257 0.0 6.1 0.00 0.00 0.27 36 1005.9
20260507192104 67 265 0.0 3.5 0.00 0.00 0.27 36 1005.9
20260507192019 67 281 0.0 6.1 0.00 0.31 0.27 36 1005.6
20260507191949 67 287 0.0 6.1 0.00 0.00 0.27 35 1005.8
20260507191740 67 272 0.0 6.1 0.00 0.00 0.27 37 1005.8
20260507191653 66 225 0.0 6.1 0.00 0.00 0.27 35 1005.9
20260507191648 67 227 0.0 6.1 0.00 0.00 0.27 37 1005.9
20260507191534 66 225 0.0 6.1 0.00 0.31 0.27 36 1005.7
20260507191452 66 222 0.0 6.1 0.00 0.00 0.27 36 1005.9
20260507191438 66 226 0.0 6.1 0.00 0.00 0.27 36 1005.9
20260507191338 66 251 0.0 6.1 0.00 0.00 0.27 37 1006.0
20260507191237 65 217 0.0 6.1 0.00 0.00 0.27 37 1006.0
20260507191150 65 284 0.0 6.1 0.00 0.00 0.27 40 1006.0
20260507191145 65 217 0.0 6.1 0.00 0.00 0.27 38 1006.0
20260507191019 65 190 0.0 0.0 0.00 0.31 0.27 40 1005.9
20260507190951 65 231 0.0 0.0 0.00 0.00 0.27 40 1006.1
20260507190935 65 202 0.0 0.0 0.00 0.00 0.27 40 1006.1
20260507190835 64 255 0.0 0.0 0.00 0.00 0.27 40 1006.1
20260507190733 64 257 0.0 0.0 0.00 0.00 0.27 41 1006.1
20260507190633 64 281 0.0 0.0 0.00 0.00 0.27 41 1006.1
20260507190534 64 174 0.0 0.0 0.00 0.31 0.27 40 1005.9
20260507190532 64 174 0.0 0.0 0.00 0.00 0.27 40 1006.1
20260507190432 64 174 0.0 0.0 0.00 0.00 0.27 39 1006.1
20260507190332 64 174 0.0 0.0 0.00 0.00 0.27 39 1006.1
20260507190231 64 175 0.0 0.0 0.00 0.00 0.27 36 1006.1
20260507190215 64 47 0.0 0.0 0.00 0.00 0.27 35 1006.2
20260507190131 64 175 0.0 0.0 0.00 0.00 0.27 35 1006.1
20260507190058 64 59 0.0 0.0 0.00 0.00 0.27 35 1006.2
20260507190019 64 49 0.0 0.0 0.00 0.31 0.27 35 1006.0
20260507185944 64 155 0.0 2.6 0.00 0.00 0.27 36 1006.2
20260507185938 64 47 0.0 2.6 0.00 0.00 0.27 35 1006.2
20260507185810 64 200 0.0 2.6 0.00 0.00 0.27 36 1006.2
20260507185803 64 155 0.0 2.6 0.00 0.00 0.27 36 1006.2
20260507185549 64 246 0.0 2.6 0.00 0.31 0.27 37 1006.0
20260507185541 64 255 0.0 2.6 0.00 0.00 0.27 37 1006.1
20260507185533 64 249 0.0 2.6 0.00 0.00 0.27 37 1006.2
20260507185326 64 317 0.0 2.6 0.00 0.00 0.27 37 1006.2
20260507185226 64 0 0.0 2.6 0.00 0.00 0.27 35 1006.2
20260507185125 64 321 0.0 2.6 0.00 0.00 0.27 37 1006.3
20260507185025 64 328 0.0 2.6 0.00 0.00 0.27 36 1006.3
20260507185019 64 19 0.0 2.6 0.00 0.31 0.27 36 1006.1
20260507184950 64 19 0.0 2.6 0.00 0.00 0.27 36 1006.3
20260507184924 64 0 0.0 0.9 0.00 0.00 0.27 36 1006.3
20260507184838 63 0 0.0 0.9 0.00 0.00 0.27 38 1006.3
20260507184833 63 0 0.0 0.9 0.00 0.00 0.27 36 1006.3
20260507184650 63 0 0.0 0.9 0.00 0.00 0.27 37 1006.4
20260507184537 63 355 0.0 0.9 0.00 0.00 0.27 40 1006.4
20260507184529 63 344 0.0 0.9 0.00 0.00 0.27 40 1006.4
20260507184519 63 355 0.0 0.9 0.00 0.31 0.27 40 1006.2
20260507184322 64 37 0.0 0.9 0.00 0.00 0.27 38 1006.4
20260507184240 64 38 0.0 0.9 0.00 0.00 0.27 39 1006.4
20260507184127 64 32 0.0 0.9 0.00 0.00 0.27 37 1006.4
20260507184019 64 38 0.0 0.9 0.00 0.31 0.27 38 1006.2
20260507183951 64 355 0.0 0.9 0.00 0.00 0.27 38 1006.4
20260507183917 64 350 0.0 0.9 0.00 0.00 0.27 36 1006.4
20260507183817 65 5 0.0 0.9 0.00 0.00 0.27 36 1006.3
20260507183725 65 355 0.0 3.5 0.00 0.00 0.27 36 1006.3
20260507183718 65 11 0.0 0.9 0.00 0.00 0.27 36 1006.3
20260507183711 65 14 0.0 3.5 0.00 0.00 0.27 36 1006.4
20260507183705 65 62 0.0 0.9 0.00 0.00 0.27 37 1006.3
20260507183519 65 340 0.0 3.5 0.00 0.31 0.27 36 1006.1
20260507183415 65 332 0.0 3.5 0.00 0.00 0.27 39 1006.3
20260507183315 65 272 0.0 3.5 0.00 0.00 0.27 43 1006.4
20260507183214 65 275 0.0 3.5 0.00 0.00 0.27 40 1006.4
20260507183115 65 283 0.0 3.5 0.00 0.00 0.27 36 1006.4
20260507183035 65 272 0.0 3.5 0.00 0.00 0.27 37 1006.4
20260507183030 65 40 0.0 3.5 0.00 0.00 0.27 37 1006.4
20260507183023 65 41 0.0 3.5 0.00 0.00 0.27 39 1006.4
20260507183019 65 40 0.0 3.5 0.00 0.31 0.27 37 1006.2
20260507182816 65 302 0.0 3.5 0.00 0.00 0.27 36 1006.4
20260507182728 66 344 0.0 3.5 0.00 0.00 0.27 37 1006.3
20260507182724 66 321 0.0 3.5 0.00 0.00 0.27 35 1006.4
20260507182541 66 46 0.0 2.6 0.00 0.00 0.27 36 1006.4
20260507182533 66 351 0.0 2.6 0.00 0.00 0.27 34 1006.4
20260507182519 66 360 0.0 2.6 0.00 0.31 0.27 36 1006.2
20260507182422 66 29 0.0 2.6 0.00 0.00 0.27 34 1006.5
20260507182256 66 309 0.0 2.6 0.00 0.00 0.27 37 1006.6
20260507182252 66 231 0.0 2.6 0.00 0.00 0.27 39 1006.5
20260507182248 66 248 0.0 2.6 0.00 0.00 0.27 37 1006.5
20260507182243 66 273 0.0 2.6 0.00 0.00 0.27 34 1006.5
20260507182019 66 250 0.0 2.6 0.00 0.31 0.27 39 1006.3
20260507182017 66 247 0.0 2.6 0.00 0.00 0.27 37 1006.5
20260507181809 66 248 0.0 2.6 0.00 0.00 0.27 36 1006.6
20260507181722 65 269 0.0 2.6 0.00 0.00 0.27 36 1006.6
20260507181718 65 262 0.0 2.6 0.00 0.00 0.27 36 1006.6
20260507181519 65 313 0.0 2.6 0.00 0.31 0.27 38 1006.5
20260507181508 65 248 0.0 2.6 0.00 0.00 0.27 38 1006.7
20260507181444 65 275 0.0 2.6 0.00 0.00 0.27 39 1006.7
20260507181408 65 281 0.0 2.6 0.00 0.00 0.27 39 1006.7
20260507181306 65 67 0.0 2.6 0.00 0.00 0.27 40 1006.7
20260507181213 64 267 0.0 2.6 0.00 0.00 0.27 40 1006.5
20260507181206 65 87 0.0 2.6 0.00 0.00 0.27 37 1006.6
20260507181105 64 323 0.0 2.6 0.00 0.00 0.27 38 1006.5
20260507181051 64 231 0.0 2.6 0.00 0.00 0.27 40 1006.5
20260507181034 64 233 0.9 2.6 0.00 0.31 0.27 40 1006.3
20260507180904 64 257 0.0 1.7 0.00 0.00 0.27 40 1006.5
20260507180804 63 265 0.0 1.7 0.00 0.00 0.27 40 1006.6
20260507180704 63 254 0.0 1.7 0.00 0.00 0.27 41 1006.6
20260507180603 63 271 0.0 1.7 0.00 0.00 0.27 37 1006.6
20260507180530 63 329 0.0 1.7 0.00 0.00 0.27 40 1006.6
20260507180522 63 329 0.0 1.7 0.00 0.00 0.27 40 1006.6
20260507180519 63 329 0.0 1.7 0.00 0.31 0.27 40 1006.4
20260507180411 63 30 0.0 1.7 0.00 0.00 0.27 37 1006.6
20260507180201 63 321 0.0 0.0 0.00 0.00 0.27 38 1006.7
20260507180101 63 322 0.0 0.9 0.00 0.00 0.27 37 1006.6
20260507180049 63 349 0.0 0.9 0.00 0.31 0.27 37 1006.4
20260507180001 63 355 0.0 0.9 0.00 0.00 0.27 36 1006.6
20260507175940 63 348 0.0 0.9 0.00 0.00 0.27 36 1006.6
20260507175859 63 0 0.0 0.9 0.00 0.00 0.27 36 1006.6
20260507175812 64 323 0.0 0.9 0.00 0.00 0.27 35 1006.7
20260507175807 64 34 0.0 0.9 0.00 0.00 0.27 36 1006.6
20260507175558 64 334 0.0 3.5 0.00 0.00 0.27 37 1006.7
20260507175519 64 24 0.0 3.5 0.00 0.31 0.27 36 1006.5
20260507175457 64 31 0.0 3.5 0.00 0.00 0.27 36 1006.7
20260507175439 64 305 0.0 3.5 0.00 0.00 0.27 36 1006.7
20260507175356 64 28 0.0 3.5 0.00 0.00 0.27 36 1006.7
20260507175256 64 30 0.0 3.5 0.00 0.00 0.27 37 1006.7
20260507175155 64 0 0.0 3.5 0.00 0.00 0.27 37 1006.7
20260507175054 64 0 0.0 3.5 0.00 0.00 0.27 36 1006.7
20260507175019 64 360 0.0 3.5 0.00 0.31 0.27 39 1006.5
20260507174937 64 0 0.0 3.5 0.00 0.00 0.27 38 1006.7
20260507174854 64 0 0.0 3.5 0.00 0.00 0.27 36 1006.8
20260507174754 64 0 0.0 3.5 0.00 0.00 0.27 37 1006.8
20260507174654 64 0 0.0 3.5 0.00 0.00 0.27 38 1006.9
20260507174553 64 0 0.0 1.7 0.00 0.00 0.27 39 1006.9
20260507174534 64 360 0.0 0.9 0.00 0.31 0.27 36 1006.6
20260507174435 64 0 0.0 1.7 0.00 0.00 0.27 39 1006.8
20260507174418 64 0 0.0 0.9 0.00 0.00 0.27 39 1006.8
20260507174414 64 0 0.0 0.9 0.00 0.00 0.27 38 1006.9
20260507174410 64 0 0.0 1.7 0.00 0.00 0.27 40 1006.9
20260507174119 64 0 0.0 0.9 0.00 0.00 0.27 38 1006.9
20260507174034 63 360 0.0 0.9 0.00 0.31 0.27 39 1006.6
20260507174006 63 0 0.0 0.9 0.00 0.00 0.27 39 1006.8
20260507173957 63 0 0.0 0.9 0.00 0.00 0.27 40 1006.8
20260507173749 63 0 0.0 0.9 0.00 0.00 0.27 37 1006.8
20260507173711 63 0 0.0 0.9 0.00 0.00 0.27 39 1006.9
20260507173558 63 0 0.0 0.9 0.00 0.00 0.27 39 1006.9
20260507173519 63 360 0.0 1.7 0.00 0.31 0.27 37 1006.9
20260507173432 63 0 0.0 1.7 0.00 0.00 0.27 39 1007.0
20260507173349 63 0 0.0 1.7 0.00 0.00 0.27 39 1007.0
20260507173248 63 0 0.0 3.5 0.00 0.00 0.27 37 1007.0
20260507173148 63 0 0.0 5.2 0.00 0.00 0.27 39 1007.1
20260507173048 63 0 0.0 12.2 0.00 0.00 0.27 38 1007.1
20260507173020 63 360 0.0 12.2 0.00 0.31 0.27 41 1007.1
20260507172930 63 0 0.0 12.2 0.00 0.00 0.27 41 1007.2
20260507172900 63 0 0.0 12.2 0.00 0.00 0.27 41 1007.2
20260507172856 63 0 0.0 12.2 0.00 0.00 0.27 43 1007.1
20260507172710 63 0 0.0 12.2 0.00 0.00 0.27 36 1007.2
20260507172706 63 0 0.0 12.2 0.00 0.00 0.27 39 1007.2
20260507172701 63 0 0.0 12.2 0.00 0.00 0.27 37 1007.2
20260507172543 63 0 0.0 12.2 0.00 0.00 0.27 37 1007.2
20260507172519 63 360 0.0 12.2 0.00 0.31 0.27 36 1007.1
20260507172431 63 0 0.0 12.2 0.00 0.00 0.27 37 1007.2
20260507172425 62 0 0.9 9.6 0.00 0.00 0.27 42 1007.3
20260507172420 63 0 0.0 12.2 0.00 0.00 0.27 41 1007.3
20260507172157 63 0 0.0 3.5 0.00 0.00 0.27 38 1007.2
20260507172148 63 0 0.0 9.6 0.00 0.00 0.27 39 1007.2
20260507172139 63 0 0.9 9.6 0.00 0.00 0.27 42 1007.2
20260507172019 63 360 0.0 8.7 0.00 0.31 0.27 39 1007.1
20260507171702 62 0 0.9 9.6 0.00 0.00 0.27 38 1007.4
20260507171658 62 0 0.9 9.6 0.00 0.00 0.27 40 1007.2
20260507171534 62 360 0.0 8.7 0.00 0.31 0.27 40 1007.3
20260507171428 62 0 0.9 9.6 0.00 0.00 0.27 38 1007.4
20260507171339 62 0 0.9 9.6 0.00 0.00 0.27 39 1007.4
20260507171236 62 0 0.9 9.6 0.00 0.00 0.27 39 1007.4
20260507171137 61 0 0.0 9.6 0.00 0.00 0.27 40 1007.4
20260507171049 61 360 0.0 5.2 0.00 0.31 0.27 41 1007.3
20260507171038 61 0 0.0 5.2 0.00 0.00 0.27 41 1007.3
20260507170929 61 0 0.0 5.2 0.00 0.00 0.27 42 1007.4
20260507170856 61 0 0.0 5.2 0.00 0.00 0.27 38 1007.5
20260507170743 61 0 0.0 5.2 0.00 0.00 0.27 40 1007.4
20260507170601 61 0 0.0 0.9 0.00 0.00 0.27 39 1007.5
20260507170519 61 360 0.0 0.9 0.00 0.31 0.27 39 1007.4
20260507170440 61 0 0.0 0.9 0.00 0.00 0.27 39 1007.5
20260507170233 61 0 0.0 0.9 0.00 0.00 0.27 45 1007.6
20260507170157 61 0 0.0 3.5 0.00 0.00 0.27 42 1007.6
20260507170043 61 0 0.0 7.0 0.00 0.00 0.27 42 1007.7
20260507170019 61 360 0.0 7.0 0.00 0.31 0.27 41 1007.6
20260507165926 61 0 0.0 7.0 0.00 0.00 0.27 43 1007.7
20260507165830 61 0 0.0 7.0 0.00 0.00 0.27 42 1007.6
20260507165729 61 0 0.0 7.0 0.00 0.00 0.27 40 1007.7
20260507165628 61 0 0.0 7.0 0.00 0.00 0.27 39 1007.7
20260507165528 61 0 0.0 7.0 0.00 0.00 0.27 40 1007.7
20260507165519 61 360 0.0 7.0 0.00 0.31 0.27 41 1007.6
20260507165429 61 0 0.0 7.0 0.00 0.00 0.27 40 1007.7
20260507165327 62 0 0.0 7.0 0.00 0.00 0.27 41 1007.7
20260507165227 62 0 0.0 7.0 0.00 0.00 0.27 38 1007.7
20260507165139 62 0 0.0 0.9 0.00 0.00 0.27 39 1007.7
20260507165135 62 0 0.0 3.5 0.00 0.00 0.27 41 1007.7
20260507165034 62 360 0.0 0.0 0.00 0.31 0.27 39 1007.6
20260507164927 62 0 0.0 0.9 0.00 0.00 0.27 41 1007.7
20260507164825 62 0 0.0 0.9 0.00 0.00 0.27 37 1007.7
20260507164725 62 0 0.0 0.9 0.00 0.00 0.27 40 1007.7
20260507164638 62 0 0.0 0.9 0.00 0.00 0.27 41 1007.7
20260507164634 62 0 0.0 0.9 0.00 0.00 0.27 40 1007.7
20260507164519 62 360 0.0 0.0 0.00 0.31 0.27 41 1007.6
20260507164423 62 0 0.0 0.0 0.00 0.00 0.27 41 1007.0
20260507163808 62 0 0.0 3.5 0.00 0.31 0.27 40 1007.9
20260507163708 62 0 0.0 3.5 0.00 0.31 0.27 40 1007.9
20260507163621 61 0 0.0 3.5 0.00 0.31 0.27 43 1007.9
20260507163616 61 0 0.0 3.5 0.00 0.31 0.27 41 1007.9
20260507163535 61 360 0.0 3.5 0.00 0.31 0.27 43 1007.8
20260507163433 61 0 0.0 2.6 0.00 0.31 0.27 40 1007.8
20260507163406 61 0 0.0 3.5 0.00 0.31 0.27 43 1007.8
20260507163321 61 0 0.0 3.5 0.00 0.31 0.27 42 1007.8
20260507163206 61 0 0.0 2.6 0.00 0.31 0.27 40 1007.8
20260507163132 61 0 0.0 8.7 0.00 0.31 0.27 39 1007.8
20260507163128 61 0 0.0 8.7 0.00 0.31 0.27 40 1007.8
20260507163123 61 0 0.0 2.6 0.00 0.31 0.27 40 1007.7
20260507163019 61 360 0.0 7.0 0.00 0.31 0.27 39 1007.7
20260507162804 61 0 0.0 8.7 0.00 0.31 0.27 43 1007.6
20260507162712 61 0 0.0 8.7 0.00 0.31 0.27 44 1007.6
20260507162703 61 0 0.0 8.7 0.00 0.31 0.27 42 1007.6
20260507162617 61 0 0.0 8.7 0.00 0.31 0.27 41 1007.6
20260507162612 61 0 0.0 8.7 0.00 0.31 0.27 43 1007.7
20260507162519 61 360 0.0 7.8 0.00 0.31 0.27 41 1007.5
20260507162402 61 0 0.0 8.7 0.00 0.31 0.27 43 1007.7
20260507162300 61 0 0.0 8.7 0.00 0.31 0.27 42 1007.8
20260507162210 61 0 0.0 8.7 0.00 0.31 0.27 41 1007.8
20260507162159 61 0 0.0 8.7 0.00 0.31 0.27 41 1007.8
20260507162059 61 0 0.0 8.7 0.00 0.31 0.27 41 1007.8
20260507162019 61 360 7.0 7.8 0.00 0.31 0.27 44 1007.6
20260507161959 61 0 0.0 7.0 0.00 0.31 0.27 44 1007.7
20260507161858 61 0 0.0 4.3 0.00 0.31 0.27 44 1007.7
20260507161757 61 0 0.0 4.3 0.00 0.31 0.27 42 1007.8
20260507161709 61 0 0.0 4.3 0.00 0.31 0.27 41 1007.9
20260507161657 61 0 0.0 4.3 0.00 0.31 0.27 41 1007.9
20260507161556 61 0 0.0 4.3 0.00 0.31 0.27 40 1007.9
20260507161519 61 360 0.0 4.3 0.00 0.31 0.27 40 1007.8
20260507161456 61 0 0.0 4.3 0.00 0.31 0.27 42 1007.9
20260507161355 61 0 0.0 4.3 0.00 0.32 0.27 42 1007.9
20260507161255 61 0 0.0 3.5 0.00 0.32 0.27 43 1007.9
20260507161209 61 0 0.0 3.5 0.00 0.32 0.27 44 1007.9
20260507161155 61 0 0.0 3.5 0.00 0.32 0.27 44 1007.9
20260507161053 61 0 0.0 3.5 0.00 0.32 0.27 43 1008.0
20260507161019 61 360 0.0 3.5 0.00 0.32 0.27 43 1008.0
20260507160953 61 0 0.0 3.5 0.00 0.32 0.27 42 1008.1
20260507160852 61 0 0.0 3.5 0.00 0.32 0.27 43 1008.1
20260507160812 61 0 0.0 4.3 0.00 0.32 0.27 45 1008.1
20260507160807 61 0 0.0 3.5 0.00 0.32 0.27 42 1008.0
20260507160759 61 0 0.0 3.5 0.00 0.32 0.27 45 1008.1
20260507160552 61 0 0.0 4.3 0.00 0.32 0.27 43 1007.9
20260507160519 61 360 0.0 4.3 0.00 0.32 0.27 45 1007.9
20260507160452 61 0 0.0 4.3 0.00 0.32 0.27 44 1008.0
20260507160351 61 0 0.0 4.3 0.00 0.32 0.27 43 1007.9
20260507160251 61 0 0.0 4.3 0.00 0.32 0.27 43 1007.9
20260507160208 61 0 0.0 4.3 0.00 0.32 0.27 44 1008.0
20260507160150 61 0 0.0 4.3 0.00 0.32 0.27 44 1008.0
20260507160050 61 0 0.0 4.3 0.00 0.32 0.27 43 1008.0
20260507160019 61 360 0.0 4.3 0.00 0.32 0.27 45 1007.9
20260507155949 61 0 0.0 4.3 0.00 0.32 0.27 45 1008.0
20260507155903 61 0 0.0 4.3 0.00 0.32 0.27 46 1008.0
20260507155858 61 0 0.0 4.3 0.00 0.32 0.27 47 1008.1
20260507155706 61 0 0.0 4.3 0.00 0.33 0.27 46 1007.9
20260507155648 61 0 0.0 0.9 0.00 0.33 0.27 46 1007.9
20260507155546 61 0 0.0 8.7 0.00 0.33 0.27 49 1007.9
20260507155519 61 360 0.0 7.8 0.00 0.33 0.27 50 1007.8
20260507155446 61 0 0.0 8.7 0.00 0.33 0.27 50 1007.9
20260507155359 60 0 0.0 8.7 0.00 0.33 0.27 49 1008.0
20260507155354 60 0 0.0 8.7 0.00 0.33 0.27 46 1007.9
20260507155204 60 0 0.0 8.7 0.00 0.33 0.27 47 1005.1
20260507155144 60 0 0.0 8.7 0.00 0.34 0.27 47 1005.1
20260507155044 60 0 0.0 8.7 0.00 0.34 0.27 46 1005.1
20260507155020 60 360 0.0 7.8 0.00 0.34 0.27 47 1005.1
20260507154943 60 0 0.0 8.7 0.00 0.34 0.27 47 1005.1
20260507154915 60 0 0.0 8.7 0.00 0.34 0.27 47 1004.9
20260507154911 60 0 0.0 8.7 0.00 0.34 0.27 49 1004.9
20260507154906 60 0 0.0 8.7 0.00 0.34 0.27 49 1005.0
20260507154749 60 0 0.0 8.7 0.00 0.34 0.27 47 1004.9
20260507154541 60 0 0.0 4.3 0.00 0.34 0.27 49 1007.3
20260507154534 60 360 0.0 4.3 0.00 0.34 0.27 48 1007.2
20260507154441 60 0 0.0 4.3 0.00 0.34 0.27 48 1007.3
20260507154355 60 0 0.0 4.3 0.00 0.35 0.27 47 1004.4
20260507154350 60 0 0.0 4.3 0.00 0.35 0.27 47 1004.4
20260507154200 60 0 0.0 4.3 0.00 0.35 0.27 47 1004.0
20260507154154 60 0 0.0 4.3 0.00 0.35 0.27 47 1004.0
20260507154149 60 0 0.0 4.3 0.00 0.35 0.27 46 1004.0
20260507154019 60 360 0.0 4.3 0.00 0.35 0.27 47 1004.0
20260507153939 60 0 0.0 4.3 0.00 0.35 0.27 46 1004.0
20260507153839 60 0 0.0 4.3 0.00 0.36 0.27 46 1004.0
20260507153739 60 0 0.0 4.3 0.00 0.36 0.27 48 1004.0
20260507153701 60 0 0.0 4.3 0.00 0.36 0.27 48 1004.0
20260507153638 60 338 0.0 4.3 0.00 0.36 0.27 48 1004.0
20260507153536 60 310 0.0 3.5 0.00 0.36 0.27 50 1004.0
20260507153519 60 360 0.0 3.5 0.00 0.36 0.27 50 1004.0
20260507153436 60 0 0.0 3.5 0.00 0.36 0.27 50 1004.0
20260507153336 60 0 0.0 3.5 0.00 0.36 0.27 48 1004.0
20260507153235 60 321 0.0 3.5 0.00 0.36 0.27 48 1004.0
20260507153201 60 0 0.0 3.5 0.00 0.37 0.27 48 1004.0
20260507153149 60 0 0.0 3.5 0.00 0.37 0.27 47 1004.0
20260507153143 60 0 0.0 3.5 0.00 0.37 0.27 50 1004.0
20260507153019 60 315 0.0 3.5 0.00 0.37 0.27 47 1004.0
20260507152934 60 329 0.0 3.5 0.00 0.37 0.27 47 1004.0
20260507152833 60 37 0.0 3.5 0.00 0.37 0.27 48 1003.9
20260507152733 60 33 0.0 3.5 0.00 0.38 0.27 45 1003.9
20260507152658 60 336 0.0 3.5 0.00 0.38 0.27 46 1003.9
20260507152644 61 39 0.0 2.6 0.00 0.38 0.27 50 1003.9
20260507152639 60 15 0.0 3.5 0.00 0.38 0.27 46 1003.9
20260507152549 61 348 0.0 2.6 0.00 0.38 0.27 50 1003.8
20260507152431 61 349 0.0 2.6 0.00 0.38 0.27 49 1003.8
20260507152330 61 355 0.0 2.6 0.00 0.38 0.27 46 1003.8
20260507152230 61 342 0.0 2.6 0.00 0.38 0.27 48 1003.8
20260507152157 61 347 0.0 2.6 0.00 0.38 0.27 49 1003.8
20260507152129 61 22 0.0 2.6 0.00 0.39 0.27 49 1003.8
20260507152028 61 343 0.0 2.6 0.00 0.39 0.27 51 1003.9
20260507152019 61 322 0.0 2.6 0.00 0.39 0.27 51 1004.0
20260507151928 61 264 0.0 2.6 0.00 0.39 0.27 53 1003.9
20260507151827 60 271 0.0 2.6 0.00 0.39 0.27 52 1004.1
20260507151726 60 0 0.0 1.7 0.00 0.39 0.27 51 1004.0
20260507151658 60 0 0.0 1.7 0.00 0.40 0.27 53 1003.9
20260507151625 60 0 0.0 1.7 0.00 0.40 0.27 53 1003.9
20260507151539 60 278 0.0 1.7 0.00 0.40 0.27 53 1003.8
20260507151534 60 0 0.0 1.7 0.00 0.40 0.27 55 1003.8
20260507151324 59 0 0.0 7.0 0.00 0.40 0.27 56 1003.9
20260507151224 59 0 0.0 7.0 0.00 0.40 0.27 60 1003.9
20260507151157 59 0 0.0 7.0 0.00 0.40 0.27 60 1004.0
20260507151123 59 0 0.0 7.0 0.00 0.41 0.27 58 1004.0
20260507151023 59 0 0.0 7.0 0.00 0.41 0.27 55 1003.9
20260507151019 59 360 0.0 7.0 0.00 0.41 0.27 53 1003.8
20260507151010 59 0 0.0 7.0 0.00 0.41 0.27 54 1003.8
20260507151006 59 0 0.0 7.0 0.00 0.41 0.27 54 1003.8
20260507151002 59 0 0.0 7.0 0.00 0.41 0.27 51 1003.8
20260507150955 59 0 0.0 7.0 0.00 0.41 0.27 53 1003.8
20260507150946 59 0 0.0 7.0 0.00 0.41 0.27 52 1003.7
20260507150522 59 0 0.0 7.0 0.00 0.41 0.27 50 1003.9
20260507150519 59 360 0.0 7.0 0.00 0.41 0.27 50 1003.9
20260507150426 59 350 0.0 4.3 0.00 0.41 0.27 55 1004.0
20260507150422 59 0 0.0 7.0 0.00 0.41 0.27 53 1003.9
20260507150321 59 0 0.0 4.3 0.00 0.41 0.27 52 1003.9
20260507150305 59 18 0.0 4.3 0.00 0.41 0.27 55 1003.9
20260507150120 59 0 0.0 0.0 0.00 0.41 0.27 57 1004.0
20260507150021 59 0 0.0 0.0 0.00 0.41 0.27 57 1004.0
20260507150019 59 360 0.0 0.9 0.00 0.41 0.27 57 1004.0
20260507145919 59 0 0.0 2.6 0.00 0.41 0.27 56 1004.0
20260507145818 59 0 0.0 2.6 0.00 0.42 0.27 56 1004.0
20260507145737 58 0 0.0 5.2 0.00 0.42 0.27 57 1004.0
20260507145732 58 0 0.0 5.2 0.00 0.42 0.27 57 1004.0
20260507145725 58 0 0.0 5.2 0.00 0.42 0.27 57 1004.0
20260507145535 58 360 0.0 5.2 0.00 0.42 0.27 54 1004.1
20260507145529 58 0 0.0 5.2 0.00 0.42 0.27 54 1004.0
20260507145416 58 0 0.0 5.2 0.00 0.42 0.27 56 1004.1
20260507145316 58 0 0.0 5.2 0.00 0.42 0.27 56 1004.1
20260507145306 58 0 0.0 5.2 0.00 0.42 0.27 56 1004.0
20260507145116 57 0 0.0 5.2 0.00 0.42 0.27 56 1004.1
20260507145019 57 360 0.0 5.2 0.00 0.42 0.27 55 1004.0
20260507145015 57 0 0.0 5.2 0.00 0.42 0.27 55 1004.0
20260507144914 57 0 0.0 5.2 0.00 0.42 0.27 56 1006.7
20260507144815 57 0 0.0 5.2 0.00 0.42 0.27 56 1006.7
20260507144714 57 0 0.0 2.6 0.00 0.42 0.27 59 1008.1
20260507144655 57 0 0.0 2.6 0.00 0.42 0.27 58 1008.1
20260507144629 57 0 0.0 2.6 0.00 0.42 0.27 59 1008.1
20260507144623 57 0 0.0 2.6 0.00 0.42 0.27 58 1008.1
20260507144519 57 360 0.0 2.6 0.00 0.42 0.27 59 1008.1
20260507144413 57 0 0.0 2.6 0.00 0.42 0.27 57 1008.1
20260507144312 57 0 0.0 2.6 0.00 0.43 0.27 55 1008.1
20260507144212 57 0 0.0 2.6 0.00 0.43 0.27 56 1008.1
20260507144156 57 0 0.0 2.6 0.00 0.43 0.27 55 1008.1
20260507144112 58 0 0.0 2.6 0.00 0.43 0.27 56 1008.2
20260507144019 58 360 0.0 4.3 0.00 0.43 0.27 57 1008.1
20260507144009 58 0 0.0 4.3 0.00 0.43 0.27 57 1008.2
20260507143923 57 0 0.0 4.3 0.00 0.43 0.27 59 1008.1
20260507143917 57 0 0.0 4.3 0.00 0.43 0.27 61 1008.1
20260507143708 57 0 0.0 4.3 0.00 0.43 0.27 57 1008.1
20260507143655 57 0 0.0 5.2 0.00 0.43 0.27 57 1008.1
20260507143621 56 0 0.0 5.2 0.00 0.43 0.27 62 1008.1
20260507143616 57 0 0.0 5.2 0.00 0.43 0.27 57 1008.1
20260507143549 56 360 0.0 5.2 0.00 0.43 0.27 62 1008.1
20260507143420 56 0 0.0 5.2 0.00 0.44 0.27 60 1008.1
20260507143414 56 0 0.0 5.2 0.00 0.44 0.27 61 1008.1
20260507143206 56 0 0.0 5.2 0.00 0.44 0.27 59 1008.3
20260507143154 56 0 0.0 5.2 0.00 0.44 0.27 59 1008.3
20260507143118 56 0 0.0 5.2 0.00 0.44 0.27 59 1008.3
20260507143113 56 0 0.0 5.2 0.00 0.44 0.27 59 1008.2
20260507143019 56 360 0.0 5.2 0.00 0.44 0.27 59 1008.3
20260507142902 56 0 0.0 5.2 0.00 0.44 0.27 59 1008.3
20260507142802 56 0 0.0 5.2 0.00 0.44 0.27 59 1004.0
20260507142653 56 0 0.0 5.2 0.00 0.45 0.27 61 1004.0
20260507142602 56 9 0.0 3.5 0.00 0.45 0.27 60 1004.2
20260507142550 56 22 0.0 3.5 0.00 0.45 0.27 60 1007.9
20260507142502 56 22 0.0 4.3 0.00 0.45 0.27 60 1007.9
20260507142401 56 284 0.0 4.3 0.00 0.45 0.27 60 1007.9
20260507142301 56 316 0.0 4.3 0.00 0.45 0.27 59 1007.9
20260507142156 56 342 0.0 4.3 0.00 0.45 0.27 60 1007.9
20260507142127 56 9 0.0 4.3 0.00 0.45 0.27 59 1007.0
20260507142123 56 0 0.0 4.3 0.00 0.45 0.27 61 1007.0
20260507142117 56 295 0.0 4.3 0.00 0.45 0.27 60 1007.9
20260507142019 56 9 0.0 3.5 0.00 0.45 0.27 59 1007.0
20260507141757 56 0 0.0 4.3 0.00 0.45 0.27 59 1007.3
20260507141653 56 0 0.0 4.3 0.00 0.45 0.27 59 1005.1
20260507141556 56 0 0.0 4.3 0.00 0.45 0.27 59 1005.1
20260507141519 56 360 0.0 4.3 0.00 0.45 0.27 60 1005.1
20260507141455 56 0 0.9 4.3 0.00 0.45 0.27 60 1005.1
20260507141409 57 0 0.9 7.0 0.00 0.45 0.27 58 1005.4
20260507141355 56 0 0.9 7.0 0.00 0.45 0.27 59 1005.1
20260507141306 57 0 0.9 7.0 0.00 0.45 0.27 60 1005.1
20260507141257 57 0 0.9 7.0 0.00 0.45 0.27 58 1005.4
20260507141055 57 0 0.9 7.0 0.00 0.45 0.27 61 1007.3
20260507141019 57 360 0.0 7.0 0.00 0.45 0.27 61 1007.3
20260507140954 57 0 0.9 7.0 0.00 0.45 0.27 61 1007.3
20260507140854 57 0 0.9 7.8 0.00 0.45 0.27 61 1007.4
20260507140752 57 0 1.7 8.7 0.00 0.45 0.27 61 1007.4
20260507140650 57 0 1.7 8.7 0.00 0.45 0.27 62 1004.2
20260507140551 57 0 1.7 8.7 0.00 0.45 0.27 62 1004.2
20260507140519 57 360 0.0 8.7 0.00 0.45 0.27 61 1004.2
20260507140451 57 0 1.7 8.7 0.00 0.45 0.27 61 1004.2
20260507140351 57 0 1.7 8.7 0.00 0.45 0.27 63 1004.2
20260507140251 57 323 1.7 8.7 0.00 0.45 0.27 61 1004.2
20260507140151 57 306 1.7 8.7 0.00 0.45 0.27 61 1004.2
20260507140111 57 309 2.6 8.7 0.00 0.45 0.27 62 1004.2
20260507140019 57 309 0.0 8.7 0.00 0.45 0.27 61 1004.2
20260507135958 57 309 2.6 8.7 0.00 0.45 0.27 61 1004.2
20260507135747 57 20 1.7 4.3 0.00 0.45 0.27 69 1004.2
20260507135653 57 17 1.7 5.2 0.00 0.45 0.27 66 1004.2
20260507135646 57 342 1.7 5.2 0.00 0.45 0.27 66 1004.2
20260507135546 56 351 1.7 5.2 0.00 0.45 0.27 65 1004.5
20260507135519 56 5 0.9 5.2 0.00 0.45 0.27 65 1004.9
20260507135445 56 5 1.7 5.2 0.00 0.45 0.27 66 1004.8
20260507135420 56 317 1.7 5.2 0.00 0.45 0.27 67 1004.6
20260507135345 56 288 1.7 5.2 0.00 0.45 0.27 66 1004.8
20260507135313 55 319 1.7 7.8 0.00 0.45 0.27 68 1005.4
20260507135308 56 295 1.7 5.2 0.00 0.45 0.27 67 1004.8
20260507135153 56 316 1.7 5.2 0.00 0.45 0.27 67 1004.6
20260507135019 55 332 4.3 7.8 0.00 0.45 0.27 68 1005.5
20260507134942 55 319 1.7 7.8 0.00 0.45 0.27 71 1005.4
20260507134842 55 0 2.6 7.8 0.00 0.45 0.27 70 1005.4
20260507134742 55 30 2.6 7.8 0.00 0.45 0.27 70 1004.8
20260507134641 55 0 2.6 7.8 0.00 0.45 0.27 72 1005.0
20260507134556 54 0 3.5 8.7 0.00 0.45 0.27 68 1005.0
20260507134550 54 0 2.6 7.8 0.00 0.45 0.27 70 1005.0
20260507134519 54 360 0.9 8.7 0.00 0.45 0.27 70 1005.2
20260507134340 54 0 3.5 8.7 0.00 0.45 0.27 67 1005.0
20260507134240 54 0 3.5 8.7 0.00 0.45 0.27 67 1004.9
20260507134139 54 0 3.5 8.7 0.00 0.45 0.27 67 1004.8
20260507134038 54 0 3.5 8.7 0.00 0.45 0.27 68 1006.9
20260507134019 54 360 0.9 8.7 0.00 0.45 0.27 66 1007.0
20260507133937 54 0 3.5 8.7 0.00 0.45 0.27 67 1006.9
20260507133907 54 0 3.5 8.7 0.00 0.45 0.27 66 1005.1
20260507133838 54 0 3.5 8.7 0.00 0.45 0.27 67 1005.1
20260507133752 54 0 3.5 8.7 0.00 0.45 0.27 67 1005.1
20260507133639 54 0 3.5 8.7 0.00 0.45 0.27 66 1005.1
20260507133538 54 0 2.6 8.7 0.00 0.45 0.27 66 1005.1
20260507133519 55 360 4.3 7.8 0.00 0.45 0.27 67 1005.3
20260507133438 55 0 2.6 7.8 0.00 0.45 0.27 67 1005.1
20260507133336 55 5 2.6 7.8 0.00 0.45 0.27 67 1005.1
20260507133251 54 339 2.6 7.8 0.00 0.45 0.27 68 1005.1
20260507133242 54 319 2.6 7.8 0.00 0.45 0.27 67 1005.1
20260507133035 54 281 2.6 7.8 0.00 0.45 0.27 67 1005.1
20260507133019 54 290 1.7 7.8 0.00 0.45 0.27 68 1005.4
20260507132934 54 278 2.6 7.8 0.00 0.45 0.27 68 1005.2
20260507132834 54 298 2.6 7.8 0.00 0.45 0.27 69 1005.5
20260507132732 54 316 2.6 7.8 0.00 0.45 0.27 69 1005.4
20260507132641 54 321 2.6 7.8 0.00 0.45 0.27 68 1005.7
20260507132631 54 328 2.6 7.8 0.00 0.45 0.27 68 1005.7
20260507132544 53 337 2.6 7.8 0.00 0.45 0.27 69 1006.8
20260507132540 53 250 2.6 7.8 0.00 0.45 0.27 68 1005.5
20260507132519 53 291 6.1 7.8 0.00 0.45 0.27 68 1006.8
20260507132331 53 306 2.6 5.2 0.00 0.45 0.27 69 1006.8
20260507132231 53 313 2.6 5.2 0.00 0.45 0.27 70 1005.5
20260507132142 53 342 2.6 5.2 0.00 0.45 0.27 73 1005.5
20260507132130 53 340 2.6 5.2 0.00 0.45 0.27 73 1005.5
20260507132029 53 0 2.6 5.2 0.00 0.45 0.27 73 1005.7
20260507132019 53 360 2.6 5.2 0.00 0.45 0.27 73 1005.8
20260507131941 53 0 2.6 5.2 0.00 0.45 0.27 72 1005.8
20260507131936 53 0 2.6 5.2 0.00 0.45 0.27 74 1005.8
20260507131727 53 0 2.6 5.2 0.00 0.45 0.27 71 1005.8
20260507131626 53 0 2.6 5.2 0.00 0.45 0.27 72 1005.9
20260507131527 53 0 2.6 5.2 0.00 0.45 0.27 72 1005.9
20260507131519 53 360 3.5 5.2 0.00 0.45 0.27 72 1005.9
20260507131426 53 0 2.6 7.8 0.00 0.45 0.27 74 1005.9
20260507131338 53 0 2.6 7.8 0.00 0.45 0.27 75 1006.8
20260507131333 53 0 2.6 7.8 0.00 0.45 0.27 75 1006.8
20260507131138 52 0 2.6 7.8 0.00 0.45 0.27 75 1005.9
20260507131124 52 0 2.6 8.7 0.00 0.45 0.27 75 1005.9
20260507131025 52 0 2.6 8.7 0.00 0.45 0.27 76 1005.9
20260507131019 52 360 1.7 8.7 0.00 0.45 0.27 76 1005.9
20260507130925 52 0 2.6 8.7 0.00 0.45 0.27 77 1005.9
20260507130836 52 0 2.6 8.7 0.00 0.45 0.27 78 1006.4
20260507130832 52 0 2.6 8.7 0.00 0.45 0.27 78 1006.3
20260507130623 52 0 2.6 8.7 0.00 0.45 0.27 79 1005.9
20260507130522 52 0 2.6 8.7 0.00 0.45 0.27 80 1006.1
20260507130519 52 360 3.5 8.7 0.00 0.45 0.27 80 1006.2
20260507130421 51 0 2.6 8.7 0.00 0.45 0.27 81 1006.1
20260507130321 51 0 2.6 8.7 0.00 0.45 0.27 81 1006.1
20260507130220 51 0 1.7 8.7 0.00 0.45 0.27 82 1006.1
20260507130135 51 0 1.7 8.7 0.00 0.45 0.27 85 1008.7
20260507130119 51 0 1.7 7.0 0.00 0.45 0.27 85 1008.7
20260507130034 51 360 4.3 4.3 0.00 0.45 0.27 89 1008.8
20260507130030 51 0 0.9 4.3 0.00 0.45 0.27 89 1008.7
20260507130026 51 0 0.9 4.3 0.00 0.45 0.27 89 1008.7
20260507125816 51 0 0.9 4.3 0.00 0.45 0.27 90 1008.7
20260507125716 51 0 0.9 3.5 0.00 0.45 0.27 90 1008.7
20260507125615 51 0 0.9 3.5 0.00 0.45 0.27 90 1008.7
20260507125542 51 0 0.9 4.3 0.00 0.45 0.27 90 1008.7
20260507125538 51 0 1.7 4.3 0.00 0.45 0.27 90 1007.8
20260507125532 51 0 0.9 3.5 0.00 0.45 0.27 90 1008.7
20260507125519 51 360 0.0 3.5 0.00 0.45 0.27 90 1008.8
20260507125214 50 0 1.7 4.3 0.00 0.45 0.27 90 1007.8
20260507125134 50 0 1.7 4.3 0.00 0.45 0.27 90 1007.8
20260507125126 50 0 1.7 4.3 0.00 0.45 0.27 90 1008.8
20260507125122 50 0 1.7 4.3 0.00 0.45 0.27 90 1008.8
20260507125020 50 360 0.9 4.3 0.00 0.45 0.27 90 1008.9
20260507124912 50 0 1.7 4.3 0.00 0.45 0.27 90 1009.1
20260507124825 50 0 0.9 4.3 0.00 0.45 0.27 91 1008.8
20260507124821 50 0 1.7 4.3 0.00 0.45 0.27 91 1009.1
20260507124631 50 0 0.9 4.3 0.00 0.45 0.27 92 1008.8
20260507124611 50 0 0.9 4.3 0.00 0.45 0.27 92 1009.2
20260507124519 50 360 1.7 4.3 0.00 0.45 0.27 92 1009.4
20260507124511 50 0 0.9 4.3 0.00 0.45 0.27 92 1009.3
20260507124409 50 0 0.9 3.5 0.00 0.45 0.27 93 1009.3
20260507124309 50 0 0.9 3.5 0.00 0.45 0.27 93 1009.2
20260507124208 50 0 0.9 3.5 0.00 0.45 0.27 93 1009.3
20260507124129 50 0 0.9 3.5 0.00 0.45 0.27 93 1009.3
20260507124108 50 0 0.9 3.5 0.00 0.45 0.27 93 1009.4
20260507124019 50 360 0.9 3.5 0.00 0.45 0.27 93 1009.5
20260507124008 50 0 0.0 3.5 0.00 0.45 0.27 93 1009.4
20260507123908 50 0 0.0 3.5 0.00 0.45 0.27 94 1009.4
20260507123820 50 0 0.0 3.5 0.00 0.45 0.27 94 1009.4
20260507123816 50 0 0.0 3.5 0.00 0.45 0.27 94 1009.4
20260507123629 50 0 0.0 3.5 0.00 0.45 0.27 94 1009.4
20260507123606 50 0 0.0 3.5 0.00 0.45 0.27 94 1009.5
20260507123549 50 360 0.0 3.5 0.00 0.45 0.27 94 1009.0
20260507123506 50 0 0.0 3.5 0.00 0.45 0.27 94 1008.9
20260507123406 50 0 0.0 3.5 0.00 0.45 0.27 95 1009.3
20260507123318 50 0 0.0 2.6 0.00 0.45 0.27 95 1009.3
20260507123314 50 0 0.0 2.6 0.00 0.45 0.27 95 1009.3
20260507123129 50 0 0.0 2.6 0.00 0.45 0.27 95 1009.3
20260507123105 50 0 0.0 2.6 0.00 0.45 0.27 95 1009.2
20260507123019 50 360 0.0 2.6 0.00 0.45 0.27 95 1009.4
20260507123003 50 0 0.0 2.6 0.00 0.45 0.27 95 1009.3
20260507122902 50 0 0.0 2.6 0.00 0.45 0.27 95 1009.2
20260507122834 50 0 0.9 3.5 0.00 0.45 0.27 95 1009.3
20260507122830 50 0 0.9 3.5 0.00 0.45 0.27 95 1009.3
20260507122824 50 0 0.9 2.6 0.00 0.45 0.27 95 1009.3
20260507122707 50 0 0.9 3.5 0.00 0.45 0.27 95 1009.3
20260507122519 50 360 0.0 3.5 0.00 0.45 0.27 95 1009.5
20260507122500 50 0 0.9 3.5 0.00 0.45 0.27 95 1009.4
20260507122412 50 0 0.0 3.5 0.00 0.45 0.27 95 1009.3
20260507122408 50 0 0.9 3.5 0.00 0.45 0.27 95 1009.3
20260507122158 50 0 0.0 3.5 0.00 0.45 0.27 95 1009.3
20260507122126 50 0 0.0 3.5 0.00 0.45 0.27 95 1009.3
20260507122111 50 0 0.0 3.5 0.00 0.45 0.27 95 1009.3
20260507122107 50 0 0.0 3.5 0.00 0.45 0.27 95 1009.3
20260507122019 50 360 0.0 3.5 0.00 0.45 0.27 95 1009.4
20260507121857 50 0 0.9 3.5 0.00 0.45 0.27 95 1009.3
20260507121809 50 0 0.9 2.6 0.00 0.45 0.27 95 1009.3
20260507121805 50 0 0.9 3.5 0.00 0.45 0.27 95 1009.3
20260507121628 50 0 0.9 2.6 0.00 0.45 0.27 95 1009.3
20260507121555 50 0 0.9 2.6 0.00 0.45 0.27 95 1009.2
20260507121519 50 360 0.0 2.6 0.00 0.45 0.27 95 1009.3
20260507121455 50 0 0.9 2.6 0.00 0.45 0.27 95 1009.2
20260507121355 50 0 0.9 2.6 0.00 0.45 0.27 95 1009.1
20260507121349 50 0 0.9 2.6 0.00 0.45 0.27 95 1009.0
20260507121254 50 0 0.9 2.6 0.00 0.45 0.27 95 1009.1
20260507121234 50 0 0.9 2.6 0.00 0.45 0.27 95 1009.0
20260507121054 50 0 0.9 2.6 0.00 0.45 0.27 95 1009.1
20260507121019 50 360 0.0 2.6 0.00 0.45 0.27 95 1009.2
20260507120954 50 0 0.9 2.6 0.00 0.45 0.27 95 1009.1
20260507120851 50 0 0.9 2.6 0.00 0.45 0.27 95 1009.1
20260507120751 50 0 0.9 2.6 0.00 0.45 0.27 95 1009.1
20260507120625 50 0 0.9 2.6 0.00 0.45 0.27 95 1009.1
20260507120550 50 0 0.9 2.6 0.00 0.45 0.27 95 1009.1
20260507120519 50 360 0.0 2.6 0.00 0.45 0.27 95 1009.2
20260507120502 50 0 0.9 2.6 0.00 0.45 0.27 95 1009.2
20260507120458 50 0 0.9 2.6 0.00 0.45 0.27 95 1009.1
20260507120249 50 0 0.9 2.6 0.00 0.45 0.27 95 1009.2
20260507120126 50 0 0.0 2.6 0.00 0.45 0.27 96 1009.2
20260507120047 50 0 0.0 2.6 0.00 0.45 0.27 96 1009.2
20260507120034 50 360 0.9 2.6 0.00 0.45 0.27 96 1009.4
20260507120009 50 0 0.0 2.6 0.00 0.45 0.27 96 1009.3
20260507115856 51 0 0.0 2.6 0.00 0.45 0.27 96 1009.3
20260507115646 51 0 0.0 2.6 0.00 0.45 0.27 96 1009.3
20260507115625 51 0 0.0 1.7 0.00 0.45 0.27 96 1009.3
20260507115546 51 0 0.0 1.7 0.00 0.45 0.27 96 1009.4
20260507115519 51 360 0.0 1.7 0.00 0.45 0.27 96 1009.6
20260507115444 51 0 0.0 1.7 0.00 0.45 0.27 96 1009.4
20260507115344 51 0 0.0 1.7 0.00 0.45 0.27 96 1009.4
20260507115257 51 0 0.0 0.9 0.00 0.45 0.27 96 1009.4
20260507115253 51 0 0.0 0.9 0.00 0.45 0.27 96 1009.4
20260507115124 51 0 0.0 0.9 0.00 0.45 0.27 96 1009.4
20260507115043 51 0 0.0 0.9 0.00 0.45 0.27 96 1009.4
20260507115019 51 360 0.0 0.9 0.00 0.45 0.27 96 1009.6
20260507114943 51 0 0.0 0.9 0.00 0.45 0.27 96 1009.4
20260507114841 51 0 0.0 0.9 0.00 0.45 0.27 96 1009.4
20260507114755 51 0 0.0 1.7 0.00 0.45 0.27 96 1009.3
20260507114751 51 0 0.0 0.9 0.00 0.45 0.27 96 1009.3
20260507114622 51 0 0.0 1.7 0.00 0.45 0.27 96 1009.3
20260507114603 51 0 0.0 1.7 0.00 0.45 0.27 96 1009.3
20260507114519 51 360 0.0 1.7 0.00 0.45 0.27 96 1009.5
20260507114450 51 0 0.0 1.7 0.00 0.45 0.27 96 1009.3
20260507114307 51 0 0.0 1.7 0.00 0.45 0.27 96 1009.3
20260507114145 51 0 0.0 1.7 0.00 0.45 0.27 96 1009.3
20260507114019 50 360 0.0 1.7 0.00 0.45 0.27 96 1009.5
20260507113938 50 0 0.0 1.7 0.00 0.45 0.27 96 1009.4
20260507113838 50 0 0.0 1.7 0.00 0.45 0.27 96 1009.4
20260507113737 50 0 0.0 1.7 0.00 0.45 0.27 96 1009.4
20260507113620 50 0 0.0 0.0 0.00 0.45 0.27 96 1009.4
20260507113536 50 0 0.0 0.0 0.00 0.45 0.27 96 1009.4
20260507113534 50 360 0.0 0.0 0.00 0.45 0.27 96 1009.4
20260507113435 50 0 0.0 0.0 0.00 0.45 0.27 96 1009.3
20260507113344 50 0 0.0 0.0 0.00 0.45 0.27 96 1009.3
20260507113335 50 0 0.0 0.0 0.00 0.45 0.27 96 1009.3
20260507113235 50 0 0.0 0.0 0.00 0.45 0.27 96 1009.3
20260507113226 50 0 0.0 0.0 0.00 0.45 0.27 96 1009.3
20260507113034 50 0 0.0 0.0 0.00 0.45 0.27 96 1009.3
20260507113019 50 360 0.0 0.0 0.00 0.45 0.27 96 1009.4
20260507112934 50 0 0.0 0.0 0.00 0.45 0.27 96 1009.3
20260507112833 50 0 0.0 0.0 0.00 0.45 0.27 96 1009.2
20260507112733 50 0 0.0 0.9 0.00 0.45 0.27 96 1009.2
20260507112616 50 0 0.0 0.9 0.00 0.45 0.27 96 1009.2
20260507112546 50 0 0.0 0.9 0.00 0.45 0.27 96 1009.2
20260507112541 50 0 0.0 0.9 0.00 0.45 0.27 96 1009.2
20260507112519 50 360 0.0 0.9 0.00 0.45 0.27 96 1009.3
20260507112331 50 0 0.0 0.9 0.00 0.45 0.27 96 1009.1
20260507112230 50 0 0.0 0.9 0.00 0.45 0.27 96 1009.0
20260507112150 50 0 0.0 0.9 0.00 0.45 0.27 96 1009.0
20260507112137 50 0 0.0 0.9 0.00 0.45 0.27 96 1009.0
20260507112019 50 360 0.0 0.9 0.00 0.45 0.27 96 1009.1
20260507111930 50 0 0.0 0.9 0.00 0.45 0.27 96 1009.0
20260507111851 50 0 0.0 0.9 0.00 0.45 0.27 96 1009.0
20260507111738 50 0 0.0 0.9 0.00 0.45 0.27 96 1009.0
20260507111612 50 0 0.0 0.9 0.00 0.45 0.27 96 1009.0
20260507111542 50 0 0.0 0.9 0.00 0.45 0.27 96 1009.0
20260507111538 50 0 0.0 0.9 0.00 0.45 0.27 96 1009.0
20260507111519 50 360 0.0 0.9 0.00 0.45 0.27 96 1009.1
20260507111327 50 0 0.0 0.9 0.00 0.45 0.27 96 1008.9
20260507111300 50 0 0.0 0.9 0.00 0.45 0.27 96 1008.9
20260507111255 50 0 0.0 0.9 0.00 0.45 0.27 96 1008.9
20260507111250 50 0 0.0 0.9 0.00 0.45 0.27 96 1008.9
20260507111133 50 0 0.0 0.9 0.00 0.45 0.27 96 1008.9
20260507111020 50 360 0.0 0.9 0.00 0.45 0.27 96 1009.1
20260507110927 50 0 0.0 0.9 0.00 0.45 0.27 96 1008.9
20260507110826 50 0 0.0 0.9 0.00 0.45 0.27 96 1008.9
20260507110725 50 0 0.0 0.9 0.00 0.45 0.27 96 1008.9
20260507110624 50 0 0.0 0.0 0.00 0.45 0.27 96 1008.9
20260507110612 50 0 0.0 0.0 0.00 0.45 0.27 96 1008.9
20260507110525 50 0 0.0 0.0 0.00 0.45 0.27 96 1008.9
20260507110519 50 360 0.0 0.0 0.00 0.45 0.27 96 1009.1
20260507110423 50 0 0.0 0.0 0.00 0.45 0.27 96 1008.9
20260507110323 50 0 0.0 0.0 0.00 0.45 0.27 96 1008.9
20260507110223 50 0 0.0 0.0 0.00 0.45 0.27 96 1008.9
20260507110110 50 0 0.0 0.0 0.00 0.45 0.27 96 1008.9
20260507110057 50 0 0.0 0.0 0.00 0.45 0.27 96 1008.8
20260507110051 50 0 0.0 0.0 0.00 0.45 0.27 96 1008.9
20260507110019 50 360 0.0 0.0 0.00 0.45 0.27 96 1009.1
20260507105938 50 0 0.0 0.0 0.00 0.45 0.27 96 1008.9
20260507105619 50 0 0.0 0.0 0.00 0.45 0.27 96 1008.7
20260507105609 50 0 0.0 0.0 0.00 0.45 0.27 96 1008.8
20260507105519 50 360 0.0 0.0 0.00 0.45 0.27 96 1009.0
20260507105418 50 0 0.0 0.0 0.00 0.45 0.27 96 1008.8
20260507105317 50 0 0.0 0.0 0.00 0.45 0.27 96 1008.7
20260507105217 50 0 0.0 0.0 0.00 0.45 0.27 96 1008.7
20260507105107 50 0 0.0 0.0 0.00 0.45 0.27 96 1008.6
20260507105019 50 360 0.0 0.0 0.00 0.45 0.27 96 1008.8
20260507105016 50 0 0.0 0.0 0.00 0.45 0.27 96 1008.6
20260507104916 50 0 0.0 0.0 0.00 0.45 0.27 96 1008.6
20260507104816 50 0 0.0 0.0 0.00 0.45 0.27 96 1008.5
20260507104714 50 0 0.0 0.0 0.00 0.45 0.27 96 1008.5
20260507104607 50 0 0.0 0.0 0.00 0.45 0.27 96 1008.5
20260507104534 50 360 0.0 0.0 0.00 0.45 0.27 96 1008.7
20260507104515 50 0 0.0 0.0 0.00 0.45 0.27 96 1008.5
20260507104414 50 0 0.0 0.0 0.00 0.45 0.27 96 1008.5
20260507104312 50 0 0.0 0.0 0.00 0.45 0.27 96 1008.4
20260507104212 50 0 0.0 0.0 0.00 0.45 0.27 96 1008.4
20260507104106 50 0 0.0 0.0 0.00 0.45 0.27 96 1008.4
20260507104034 50 360 0.0 0.0 0.00 0.45 0.27 96 1008.6
20260507104024 49 0 0.0 0.0 0.00 0.45 0.27 96 1008.4
20260507104020 49 0 0.0 0.0 0.00 0.45 0.27 96 1008.4
20260507103810 49 0 0.0 0.0 0.00 0.45 0.27 96 1008.5
20260507103710 49 0 0.0 0.9 0.00 0.45 0.27 96 1008.4
20260507103630 49 0 0.0 0.9 0.00 0.45 0.27 96 1008.5
20260507103618 49 0 0.0 0.9 0.00 0.45 0.27 96 1008.5
20260507103520 50 360 0.0 0.9 0.00 0.45 0.27 96 1008.7
20260507103409 49 0 0.0 0.9 0.00 0.45 0.27 96 1008.5
20260507103309 49 0 0.0 0.9 0.00 0.45 0.27 96 1008.4
20260507103208 49 0 0.0 0.9 0.00 0.45 0.27 96 1008.4
20260507103103 49 0 0.0 0.9 0.00 0.45 0.27 96 1008.4
20260507103021 49 360 0.0 0.9 0.00 0.45 0.27 96 1008.4
20260507103005 49 0 0.0 0.9 0.00 0.45 0.27 96 1008.3
20260507102905 49 0 0.0 0.9 0.00 0.45 0.27 96 1008.3
20260507102805 49 0 0.0 0.9 0.00 0.45 0.27 95 1008.3
20260507102704 49 0 0.0 0.0 0.00 0.45 0.27 95 1008.3
20260507102605 49 0 0.0 0.0 0.00 0.45 0.27 95 1008.3
20260507102519 49 360 0.0 0.0 0.00 0.45 0.27 95 1008.4
20260507102503 49 0 0.0 0.0 0.00 0.45 0.27 95 1008.3
20260507102402 49 0 0.0 0.0 0.00 0.45 0.27 95 1008.3
20260507102306 49 0 0.0 0.0 0.00 0.45 0.27 95 1008.3
20260507102216 49 0 0.0 0.0 0.00 0.45 0.27 96 1008.4
20260507102207 49 0 0.0 0.0 0.00 0.45 0.27 96 1008.3
20260507102019 49 360 0.0 0.0 0.00 0.45 0.27 96 1008.4
20260507102001 49 0 0.0 0.0 0.00 0.45 0.27 96 1008.3
20260507101900 49 0 0.0 0.0 0.00 0.45 0.27 96 1008.3
20260507101800 49 0 0.0 0.0 0.00 0.45 0.27 96 1008.3
20260507101659 49 0 0.0 0.0 0.00 0.45 0.27 96 1008.2
20260507101559 49 0 0.0 0.0 0.00 0.45 0.27 96 1008.2
20260507101534 49 360 0.0 0.0 0.00 0.45 0.27 96 1008.3
20260507101458 49 0 0.0 0.0 0.00 0.45 0.27 96 1008.2
20260507101358 49 0 0.0 0.0 0.00 0.45 0.27 96 1008.2
20260507101331 49 0 0.0 0.0 0.00 0.45 0.27 95 1008.2
20260507101327 49 0 0.0 0.0 0.00 0.45 0.27 95 1008.2
20260507101321 49 0 0.0 0.0 0.00 0.45 0.27 95 1008.2
20260507101203 49 0 0.0 0.0 0.00 0.45 0.27 95 1008.2
20260507101019 49 360 0.0 0.0 0.00 0.45 0.27 95 1008.3
20260507100957 49 0 0.0 0.0 0.00 0.45 0.27 95 1008.2
20260507100909 49 0 0.0 0.0 0.00 0.45 0.27 95 1008.0
20260507100905 49 0 0.0 0.0 0.00 0.45 0.27 95 1008.2
20260507100655 49 0 0.0 0.0 0.00 0.45 0.27 95 1008.0
20260507100555 49 0 0.0 0.0 0.00 0.45 0.27 95 1007.9
20260507100519 49 360 0.0 0.0 0.00 0.45 0.27 95 1008.1
20260507100454 49 0 0.0 0.0 0.00 0.45 0.27 95 1008.0
20260507100354 49 0 0.0 0.0 0.00 0.45 0.27 95 1008.0
20260507100253 49 0 0.0 0.0 0.00 0.45 0.27 95 1008.0
20260507100152 49 0 0.0 0.0 0.00 0.45 0.27 95 1007.9
20260507100053 49 0 0.0 0.0 0.00 0.45 0.27 95 1007.9
20260507100019 49 360 0.0 0.0 0.00 0.45 0.27 95 1008.0
20260507095952 49 0 0.0 0.0 0.00 0.45 0.27 95 1007.9
20260507095851 49 0 0.0 0.0 0.00 0.45 0.27 95 1007.9
20260507095750 49 0 0.0 0.0 0.00 0.45 0.27 95 1007.9
20260507095702 49 0 0.0 0.0 0.00 0.45 0.27 95 1007.9
20260507095653 49 0 0.0 0.0 0.00 0.45 0.27 95 1007.9
20260507095519 49 360 0.0 0.0 0.00 0.45 0.27 95 1008.1
20260507095447 49 0 0.0 0.0 0.00 0.45 0.27 95 1008.0
20260507095346 49 0 0.0 0.0 0.00 0.45 0.27 95 1008.0
20260507095246 49 0 0.0 0.0 0.00 0.45 0.27 95 1008.0
20260507095146 49 0 0.0 0.0 0.00 0.45 0.27 95 1008.1
20260507095046 49 0 0.0 0.0 0.00 0.45 0.27 95 1008.0